Time,TemperatureF,DewpointF,PressureIn,WindDirection,WindDirectionDegrees,WindSpeedMPH,WindSpeedGustMPH,Humidity,HourlyPrecipIn,Conditions,Clouds,dailyrainin,SolarRadiationWatts/m^2,SoftwareType,DateUTC
2013-03-04 00:01:00,13.5,8.2,30.19,ENE,65,0.0,0.0,79,0.00,,,0.00,0,Wunderground v.1.15,2013-03-04 06:01:00,
2013-03-04 00:03:00,13.6,8.3,30.19,ENE,65,0.0,0.0,79,0.00,,,0.00,0,Wunderground v.1.15,2013-03-04 06:03:00,
2013-03-04 00:06:00,13.6,8.3,30.19,ENE,65,0.0,0.0,79,0.00,,,0.00,0,Wunderground v.1.15,2013-03-04 06:06:00,
2013-03-04 00:08:00,13.6,8.3,30.19,ENE,65,0.0,0.0,79,0.00,,,0.00,0,Wunderground v.1.15,2013-03-04 06:08:00,
2013-03-04 00:09:00,13.5,8.2,30.19,ENE,65,0.0,0.0,79,0.00,,,0.00,0,Wunderground v.1.15,2013-03-04 06:09:00,
2013-03-04 00:12:00,13.5,8.2,30.19,ENE,65,0.0,0.0,79,0.00,,,0.00,0,Wunderground v.1.15,2013-03-04 06:12:00,
2013-03-04 00:14:00,13.6,8.3,30.19,ENE,65,0.0,0.0,79,0.00,,,0.00,0,Wunderground v.1.15,2013-03-04 06:14:00,
2013-03-04 00:16:00,13.6,8.3,30.19,ENE,65,0.0,0.0,79,0.00,,,0.00,0,Wunderground v.1.15,2013-03-04 06:16:00,
2013-03-04 00:20:00,13.7,8.4,30.19,ENE,65,0.0,0.0,79,0.00,,,0.00,0,Wunderground v.1.15,2013-03-04 06:20:00,
2013-03-04 00:21:00,13.7,8.4,30.20,ENE,65,0.0,0.0,79,0.00,,,0.00,0,Wunderground v.1.15,2013-03-04 06:21:00,
2013-03-04 00:23:00,13.7,8.4,30.20,ENE,65,0.0,0.0,79,0.00,,,0.00,0,Wunderground v.1.15,2013-03-04 06:23:00,
2013-03-04 00:27:00,13.6,8.3,30.20,ENE,65,0.0,0.0,79,0.00,,,0.00,0,Wunderground v.1.15,2013-03-04 06:27:00,
2013-03-04 00:28:00,13.6,8.3,30.20,ENE,65,0.0,0.0,79,0.00,,,0.00,0,Wunderground v.1.15,2013-03-04 06:28:00,
2013-03-04 00:29:00,13.6,8.3,30.20,ENE,65,0.0,0.0,79,0.00,,,0.00,0,Wunderground v.1.15,2013-03-04 06:29:00,
2013-03-04 00:31:00,13.6,8.3,30.20,ENE,65,0.0,0.0,79,0.00,,,0.00,0,Wunderground v.1.15,2013-03-04 06:31:00,
2013-03-04 00:33:00,13.7,8.7,30.20,ENE,65,0.0,0.0,80,0.00,,,0.00,0,Wunderground v.1.15,2013-03-04 06:33:00,
2013-03-04 00:34:00,13.7,8.7,30.20,ENE,65,0.0,0.0,80,0.00,,,0.00,0,Wunderground v.1.15,2013-03-04 06:34:00,
2013-03-04 00:38:00,13.7,8.7,30.20,ENE,65,0.0,0.0,80,0.00,,,0.00,0,Wunderground v.1.15,2013-03-04 06:38:00,
2013-03-04 00:39:00,13.7,8.7,30.20,ENE,65,0.0,0.0,80,0.00,,,0.00,0,Wunderground v.1.15,2013-03-04 06:39:00,
2013-03-04 00:40:00,13.7,8.7,30.20,ENE,65,0.0,0.0,80,0.00,,,0.00,0,Wunderground v.1.15,2013-03-04 06:40:00,
2013-03-04 00:43:00,13.9,8.9,30.21,ENE,65,0.0,0.0,80,0.00,,,0.00,0,Wunderground v.1.15,2013-03-04 06:43:00,
2013-03-04 00:46:00,13.9,8.9,30.20,ENE,65,0.0,0.0,80,0.00,,,0.00,0,Wunderground v.1.15,2013-03-04 06:46:00,
2013-03-04 00:47:00,13.9,8.9,30.20,ENE,65,0.0,0.0,80,0.00,,,0.00,0,Wunderground v.1.15,2013-03-04 06:47:00,
2013-03-04 00:48:00,13.9,8.9,30.20,ENE,65,0.0,0.0,80,0.00,,,0.00,0,Wunderground v.1.15,2013-03-04 06:48:00,
2013-03-04 00:51:00,13.9,8.9,30.20,ENE,65,0.0,0.0,80,0.00,,,0.00,0,Wunderground v.1.15,2013-03-04 06:51:00,
2013-03-04 00:53:00,14.0,9.0,30.20,ENE,65,0.0,0.0,80,0.00,,,0.00,0,Wunderground v.1.15,2013-03-04 06:53:00,
2013-03-04 00:54:00,13.9,8.9,30.20,ENE,65,0.0,0.0,80,0.00,,,0.00,0,Wunderground v.1.15,2013-03-04 06:54:00,
2013-03-04 00:57:00,13.9,8.9,30.20,ENE,65,0.0,0.0,80,0.00,,,0.00,0,Wunderground v.1.15,2013-03-04 06:57:00,
2013-03-04 00:59:00,13.9,8.9,30.20,ENE,65,0.0,0.0,80,0.00,,,0.00,0,Wunderground v.1.15,2013-03-04 06:59:00,
2013-03-04 01:01:00,13.9,8.6,30.20,ENE,65,0.0,0.0,79,0.00,,,0.00,0,Wunderground v.1.15,2013-03-04 07:01:00,
2013-03-04 01:02:00,13.9,8.6,30.20,ENE,65,0.0,0.0,79,0.00,,,0.00,0,Wunderground v.1.15,2013-03-04 07:02:00,
2013-03-04 01:03:00,13.9,8.6,30.21,ENE,65,0.0,0.0,79,0.00,,,0.00,0,Wunderground v.1.15,2013-03-04 07:03:00,
2013-03-04 01:06:00,14.0,8.7,30.20,ENE,65,0.0,0.0,79,0.00,,,0.00,0,Wunderground v.1.15,2013-03-04 07:06:00,
2013-03-04 01:09:00,14.1,8.8,30.20,ENE,65,0.0,0.0,79,0.00,,,0.00,0,Wunderground v.1.15,2013-03-04 07:09:00,
2013-03-04 01:10:00,14.2,8.9,30.21,ENE,65,0.0,0.0,79,0.00,,,0.00,0,Wunderground v.1.15,2013-03-04 07:10:00,
2013-03-04 01:15:00,14.3,9.0,30.21,ENE,65,0.0,2.0,79,0.00,,,0.00,0,Wunderground v.1.15,2013-03-04 07:15:00,
2013-03-04 01:18:00,14.4,9.1,30.21,ENE,65,1.0,2.0,79,0.00,,,0.00,0,Wunderground v.1.15,2013-03-04 07:18:00,
2013-03-04 01:20:00,14.5,9.2,30.21,ENE,65,1.0,1.0,79,0.00,,,0.00,0,Wunderground v.1.15,2013-03-04 07:20:00,
2013-03-04 01:21:00,14.6,9.3,30.21,ENE,65,1.0,1.0,79,0.00,,,0.00,0,Wunderground v.1.15,2013-03-04 07:21:00,
2013-03-04 01:22:00,14.7,9.4,30.21,ENE,65,1.0,1.0,79,0.00,,,0.00,0,Wunderground v.1.15,2013-03-04 07:22:00,
2013-03-04 01:27:00,15.0,9.7,30.21,ENE,65,0.0,1.0,79,0.00,,,0.00,0,Wunderground v.1.15,2013-03-04 07:27:00,
2013-03-04 01:28:00,15.0,9.7,30.21,ENE,65,0.0,1.0,79,0.00,,,0.00,0,Wunderground v.1.15,2013-03-04 07:28:00,
2013-03-04 01:31:00,15.1,9.8,30.21,ENE,65,0.0,0.0,79,0.00,,,0.00,0,Wunderground v.1.15,2013-03-04 07:31:00,
2013-03-04 01:32:00,15.1,9.8,30.21,ENE,65,0.0,0.0,79,0.00,,,0.00,0,Wunderground v.1.15,2013-03-04 07:32:00,
2013-03-04 01:38:00,15.2,9.9,30.21,ENE,65,0.0,0.0,79,0.00,,,0.00,0,Wunderground v.1.15,2013-03-04 07:38:00,
2013-03-04 01:41:00,15.1,9.8,30.21,ENE,65,0.0,0.0,79,0.00,,,0.00,0,Wunderground v.1.15,2013-03-04 07:41:00,
2013-03-04 01:43:00,14.9,9.6,30.21,ENE,65,0.0,0.0,79,0.00,,,0.00,0,Wunderground v.1.15,2013-03-04 07:43:00,
2013-03-04 01:46:00,14.9,9.6,30.21,ENE,65,0.0,0.0,79,0.00,,,0.00,0,Wunderground v.1.15,2013-03-04 07:46:00,
2013-03-04 01:48:00,14.8,9.5,30.21,ENE,65,0.0,0.0,79,0.00,,,0.00,0,Wunderground v.1.15,2013-03-04 07:48:00,
2013-03-04 01:49:00,14.8,9.5,30.21,ENE,65,0.0,0.0,79,0.00,,,0.00,0,Wunderground v.1.15,2013-03-04 07:49:00,
2013-03-04 01:52:00,14.8,9.7,30.21,ENE,65,0.0,0.0,80,0.00,,,0.00,0,Wunderground v.1.15,2013-03-04 07:52:00,
2013-03-04 01:56:00,15.0,9.9,30.21,ENE,65,0.0,0.0,80,0.00,,,0.00,0,Wunderground v.1.15,2013-03-04 07:56:00,
2013-03-04 01:57:00,15.0,9.9,30.20,ENE,65,0.0,0.0,80,0.00,,,0.00,0,Wunderground v.1.15,2013-03-04 07:57:00,
2013-03-04 01:58:00,14.9,9.6,30.20,ENE,65,0.0,0.0,79,0.00,,,0.00,0,Wunderground v.1.15,2013-03-04 07:58:00,
2013-03-04 02:00:00,14.9,9.6,30.20,ENE,65,0.0,0.0,79,0.00,,,0.00,0,Wunderground v.1.15,2013-03-04 08:00:00,
2013-03-04 02:02:00,14.9,9.6,30.20,ENE,65,0.0,0.0,79,0.00,,,0.00,0,Wunderground v.1.15,2013-03-04 08:02:00,
2013-03-04 02:03:00,14.9,9.6,30.20,ENE,65,0.0,1.0,79,0.00,,,0.00,0,Wunderground v.1.15,2013-03-04 08:03:00,
2013-03-04 02:04:00,14.9,9.6,30.20,ENE,65,0.0,1.0,79,0.00,,,0.00,0,Wunderground v.1.15,2013-03-04 08:04:00,
2013-03-04 02:08:00,15.3,10.0,30.20,ENE,65,0.0,1.0,79,0.00,,,0.00,0,Wunderground v.1.15,2013-03-04 08:08:00,
2013-03-04 02:09:00,15.4,10.1,30.20,ENE,65,0.0,1.0,79,0.00,,,0.00,0,Wunderground v.1.15,2013-03-04 08:09:00,
2013-03-04 02:12:00,15.4,10.1,30.20,ENE,65,0.0,1.0,79,0.00,,,0.00,0,Wunderground v.1.15,2013-03-04 08:12:00,
2013-03-04 02:15:00,15.5,9.9,30.20,ENE,65,0.0,1.0,78,0.00,,,0.00,0,Wunderground v.1.15,2013-03-04 08:15:00,
2013-03-04 02:16:00,15.5,9.9,30.20,ENE,65,0.0,1.0,78,0.00,,,0.00,0,Wunderground v.1.15,2013-03-04 08:16:00,
2013-03-04 02:21:00,15.4,9.8,30.20,ENE,65,1.0,1.0,78,0.00,,,0.00,0,Wunderground v.1.15,2013-03-04 08:21:00,
2013-03-04 02:22:00,15.4,9.8,30.20,ENE,65,1.0,1.0,78,0.00,,,0.00,0,Wunderground v.1.15,2013-03-04 08:22:00,
2013-03-04 02:23:00,15.4,9.8,30.20,ENE,65,1.0,1.0,78,0.00,,,0.00,0,Wunderground v.1.15,2013-03-04 08:23:00,
2013-03-04 02:26:00,15.5,9.9,30.20,ENE,65,0.0,1.0,78,0.00,,,0.00,0,Wunderground v.1.15,2013-03-04 08:26:00,
2013-03-04 02:27:00,15.5,9.9,30.20,ENE,65,0.0,1.0,78,0.00,,,0.00,0,Wunderground v.1.15,2013-03-04 08:27:00,
2013-03-04 02:29:00,15.6,10.0,30.20,ENE,65,0.0,1.0,78,0.00,,,0.00,0,Wunderground v.1.15,2013-03-04 08:29:00,
2013-03-04 02:32:00,15.5,9.9,30.20,ENE,65,0.0,1.0,78,0.00,,,0.00,0,Wunderground v.1.15,2013-03-04 08:32:00,
2013-03-04 02:33:00,15.5,9.9,30.20,ENE,65,0.0,1.0,78,0.00,,,0.00,0,Wunderground v.1.15,2013-03-04 08:33:00,
2013-03-04 02:36:00,15.6,10.2,30.20,ENE,65,0.0,1.0,79,0.00,,,0.00,0,Wunderground v.1.15,2013-03-04 08:36:00,
2013-03-04 02:37:00,15.7,10.3,30.19,ENE,65,0.0,1.0,79,0.00,,,0.00,0,Wunderground v.1.15,2013-03-04 08:37:00,
2013-03-04 02:39:00,15.7,10.3,30.19,ENE,65,0.0,1.0,79,0.00,,,0.00,0,Wunderground v.1.15,2013-03-04 08:39:00,
2013-03-04 02:40:00,15.7,10.1,30.20,ENE,65,0.0,0.0,78,0.00,,,0.00,0,Wunderground v.1.15,2013-03-04 08:40:00,
2013-03-04 02:43:00,15.6,10.0,30.19,ENE,65,0.0,0.0,78,0.00,,,0.00,0,Wunderground v.1.15,2013-03-04 08:43:00,
2013-03-04 02:44:00,15.6,10.0,30.19,ENE,65,0.0,0.0,78,0.00,,,0.00,0,Wunderground v.1.15,2013-03-04 08:44:00,
2013-03-04 02:46:00,15.6,10.0,30.19,ENE,65,0.0,0.0,78,0.00,,,0.00,0,Wunderground v.1.15,2013-03-04 08:46:00,
2013-03-04 02:51:00,15.6,10.2,30.19,ENE,65,0.0,0.0,79,0.00,,,0.00,0,Wunderground v.1.15,2013-03-04 08:51:00,
2013-03-04 02:52:00,15.7,10.3,30.19,ENE,65,0.0,1.0,79,0.00,,,0.00,0,Wunderground v.1.15,2013-03-04 08:52:00,
2013-03-04 02:56:00,15.8,10.4,30.19,ENE,65,0.0,1.0,79,0.00,,,0.00,0,Wunderground v.1.15,2013-03-04 08:56:00,
2013-03-04 02:58:00,15.8,10.4,30.19,ENE,65,0.0,2.0,79,0.00,,,0.00,0,Wunderground v.1.15,2013-03-04 08:58:00,
2013-03-04 03:01:00,16.0,10.6,30.19,ENE,65,0.0,0.0,79,0.00,,,0.00,0,Wunderground v.1.15,2013-03-04 09:01:00,
2013-03-04 03:04:00,16.2,10.8,30.18,ENE,65,0.0,0.0,79,0.00,,,0.00,0,Wunderground v.1.15,2013-03-04 09:04:00,
2013-03-04 03:05:00,16.2,10.8,30.19,ENE,65,0.0,2.0,79,0.00,,,0.00,0,Wunderground v.1.15,2013-03-04 09:05:00,
2013-03-04 03:07:00,16.2,10.8,30.18,ENE,65,1.0,2.0,79,0.00,,,0.00,0,Wunderground v.1.15,2013-03-04 09:07:00,
2013-03-04 03:10:00,16.3,10.6,30.18,ENE,65,0.0,0.0,78,0.00,,,0.00,0,Wunderground v.1.15,2013-03-04 09:10:00,
2013-03-04 03:14:00,16.2,10.5,30.18,ENE,65,0.0,0.0,78,0.00,,,0.00,0,Wunderground v.1.15,2013-03-04 09:14:00,
2013-03-04 03:15:00,16.1,10.4,30.18,ENE,65,0.0,0.0,78,0.00,,,0.00,0,Wunderground v.1.15,2013-03-04 09:15:00,
2013-03-04 03:17:00,16.1,10.7,30.18,ENE,65,0.0,0.0,79,0.00,,,0.00,0,Wunderground v.1.15,2013-03-04 09:17:00,
2013-03-04 03:18:00,16.1,10.7,30.18,ENE,65,0.0,0.0,79,0.00,,,0.00,0,Wunderground v.1.15,2013-03-04 09:18:00,
2013-03-04 03:22:00,16.1,10.7,30.18,ENE,65,0.0,0.0,79,0.00,,,0.00,0,Wunderground v.1.15,2013-03-04 09:22:00,
2013-03-04 03:23:00,16.2,10.8,30.18,ENE,65,0.0,0.0,79,0.00,,,0.00,0,Wunderground v.1.15,2013-03-04 09:23:00,
2013-03-04 03:25:00,16.3,11.2,30.18,ENE,65,0.0,0.0,80,0.00,,,0.00,0,Wunderground v.1.15,2013-03-04 09:25:00,
2013-03-04 03:27:00,16.4,11.3,30.18,ENE,65,0.0,1.0,80,0.00,,,0.00,0,Wunderground v.1.15,2013-03-04 09:27:00,
2013-03-04 03:28:00,16.5,11.4,30.18,ENE,65,0.0,1.0,80,0.00,,,0.00,0,Wunderground v.1.15,2013-03-04 09:28:00,
2013-03-04 03:30:00,16.5,11.1,30.18,ENE,65,0.0,0.0,79,0.00,,,0.00,0,Wunderground v.1.15,2013-03-04 09:30:00,
2013-03-04 03:32:00,16.6,11.2,30.17,ENE,65,0.0,0.0,79,0.00,,,0.00,0,Wunderground v.1.15,2013-03-04 09:32:00,
2013-03-04 03:33:00,16.5,11.1,30.17,ENE,65,0.0,0.0,79,0.00,,,0.00,0,Wunderground v.1.15,2013-03-04 09:33:00,
2013-03-04 03:35:00,16.4,11.0,30.17,ENE,65,0.0,0.0,79,0.00,,,0.00,0,Wunderground v.1.15,2013-03-04 09:35:00,
2013-03-04 03:37:00,16.4,11.0,30.17,ENE,65,0.0,0.0,79,0.00,,,0.00,0,Wunderground v.1.15,2013-03-04 09:37:00,
2013-03-04 03:38:00,16.5,11.1,30.17,ENE,65,0.0,0.0,79,0.00,,,0.00,0,Wunderground v.1.15,2013-03-04 09:38:00,
2013-03-04 03:43:00,16.9,11.5,30.17,ENE,65,0.0,0.0,79,0.00,,,0.00,0,Wunderground v.1.15,2013-03-04 09:43:00,
2013-03-04 03:44:00,16.9,11.5,30.17,ENE,65,0.0,0.0,79,0.00,,,0.00,0,Wunderground v.1.15,2013-03-04 09:44:00,
2013-03-04 03:49:00,17.1,11.7,30.17,ENE,65,0.0,0.0,79,0.00,,,0.00,0,Wunderground v.1.15,2013-03-04 09:49:00,
2013-03-04 03:51:00,17.1,11.4,30.17,ENE,65,0.0,0.0,78,0.00,,,0.00,0,Wunderground v.1.15,2013-03-04 09:51:00,
2013-03-04 03:53:00,17.7,12.0,30.17,ENE,65,0.0,0.0,78,0.00,,,0.00,0,Wunderground v.1.15,2013-03-04 09:53:00,
2013-03-04 03:56:00,17.9,11.9,30.17,ENE,65,0.0,0.0,77,0.00,,,0.00,0,Wunderground v.1.15,2013-03-04 09:56:00,
2013-03-04 03:58:00,17.7,11.4,30.17,ENE,65,0.0,0.0,76,0.00,,,0.00,0,Wunderground v.1.15,2013-03-04 09:58:00,
2013-03-04 04:00:00,17.9,11.6,30.17,ENE,65,0.0,0.0,76,0.00,,,0.00,0,Wunderground v.1.15,2013-03-04 10:00:00,
2013-03-04 04:02:00,18.4,11.8,30.17,ENE,65,0.0,0.0,75,0.00,,,0.00,0,Wunderground v.1.15,2013-03-04 10:02:00,
2013-03-04 04:03:00,18.4,11.8,30.17,ENE,65,0.0,0.0,75,0.00,,,0.00,0,Wunderground v.1.15,2013-03-04 10:03:00,
2013-03-04 04:07:00,18.8,11.9,30.17,ENE,65,0.0,0.0,74,0.00,,,0.00,0,Wunderground v.1.15,2013-03-04 10:07:00,
2013-03-04 04:08:00,18.8,11.9,30.17,ENE,65,0.0,0.0,74,0.00,,,0.00,0,Wunderground v.1.15,2013-03-04 10:08:00,
2013-03-04 04:10:00,18.9,11.7,30.17,ENE,65,0.0,0.0,73,0.00,,,0.00,0,Wunderground v.1.15,2013-03-04 10:10:00,
2013-03-04 04:13:00,19.3,11.1,30.17,ENE,65,0.0,0.0,70,0.00,,,0.00,0,Wunderground v.1.15,2013-03-04 10:13:00,
2013-03-04 04:15:00,19.5,11.0,30.17,ENE,65,0.0,0.0,69,0.00,,,0.00,0,Wunderground v.1.15,2013-03-04 10:15:00,
2013-03-04 04:16:00,19.7,10.8,30.17,ENE,65,0.0,0.0,68,0.00,,,0.00,0,Wunderground v.1.15,2013-03-04 10:16:00,
2013-03-04 04:20:00,19.8,11.6,30.17,ENE,65,0.0,0.0,70,0.00,,,0.00,0,Wunderground v.1.15,2013-03-04 10:20:00,
2013-03-04 04:22:00,19.7,11.2,30.17,ENE,65,0.0,0.0,69,0.00,,,0.00,0,Wunderground v.1.15,2013-03-04 10:22:00,
2013-03-04 04:24:00,19.9,11.0,30.17,ENE,65,0.0,0.0,68,0.00,,,0.00,0,Wunderground v.1.15,2013-03-04 10:24:00,
2013-03-04 04:25:00,19.9,11.4,30.17,ENE,65,0.0,0.0,69,0.00,,,0.00,0,Wunderground v.1.15,2013-03-04 10:25:00,
2013-03-04 04:27:00,20.0,11.1,30.17,ENE,65,0.0,0.0,68,0.00,,,0.00,0,Wunderground v.1.15,2013-03-04 10:27:00,
2013-03-04 04:28:00,20.0,11.5,30.17,ENE,65,0.0,0.0,69,0.00,,,0.00,0,Wunderground v.1.15,2013-03-04 10:28:00,
2013-03-04 04:29:00,20.1,11.6,30.17,ENE,65,0.0,0.0,69,0.00,,,0.00,0,Wunderground v.1.15,2013-03-04 10:29:00,
2013-03-04 04:33:00,20.2,11.0,30.17,ENE,65,0.0,0.0,67,0.00,,,0.00,0,Wunderground v.1.15,2013-03-04 10:33:00,
2013-03-04 04:36:00,20.3,10.4,30.17,ENE,65,0.0,0.0,65,0.00,,,0.00,0,Wunderground v.1.15,2013-03-04 10:36:00,
2013-03-04 04:38:00,20.2,11.0,30.17,ENE,65,0.0,0.0,67,0.00,,,0.00,0,Wunderground v.1.15,2013-03-04 10:38:00,
2013-03-04 04:39:00,20.2,11.0,30.17,ENE,65,0.0,0.0,67,0.00,,,0.00,0,Wunderground v.1.15,2013-03-04 10:39:00,
2013-03-04 04:44:00,20.4,9.1,30.17,ENE,65,0.0,0.0,61,0.00,,,0.00,0,Wunderground v.1.15,2013-03-04 10:44:00,
2013-03-04 04:47:00,20.6,9.3,30.17,ENE,65,0.0,0.0,61,0.00,,,0.00,0,Wunderground v.1.15,2013-03-04 10:47:00,
2013-03-04 04:48:00,20.7,9.4,30.17,ENE,65,0.0,0.0,61,0.00,,,0.00,0,Wunderground v.1.15,2013-03-04 10:48:00,
2013-03-04 04:50:00,20.9,9.2,30.17,East,90,0.0,1.0,60,0.00,,,0.00,0,Wunderground v.1.15,2013-03-04 10:50:00,
2013-03-04 04:53:00,21.0,8.9,30.17,SSE,163,0.0,2.0,59,0.00,,,0.00,0,Wunderground v.1.15,2013-03-04 10:53:00,
2013-03-04 04:55:00,21.0,8.1,30.17,SE,134,1.0,4.0,57,0.00,,,0.00,0,Wunderground v.1.15,2013-03-04 10:55:00,
2013-03-04 04:56:00,21.1,7.4,30.17,SE,134,1.0,4.0,55,0.00,,,0.00,0,Wunderground v.1.15,2013-03-04 10:56:00,
2013-03-04 04:57:00,21.2,7.5,30.17,SE,134,1.0,4.0,55,0.00,,,0.00,0,Wunderground v.1.15,2013-03-04 10:57:00,
2013-03-04 04:59:00,21.4,6.9,30.17,ENE,70,1.0,4.0,53,0.00,,,0.00,0,Wunderground v.1.15,2013-03-04 10:59:00,
2013-03-04 05:00:00,21.4,6.5,30.17,East,86,1.0,1.0,52,0.00,,,0.00,0,Wunderground v.1.15,2013-03-04 11:00:00,
2013-03-04 05:03:00,21.5,5.7,30.17,ESE,113,2.0,3.0,50,0.00,,,0.00,0,Wunderground v.1.15,2013-03-04 11:03:00,
2013-03-04 05:04:00,21.5,5.3,30.17,ENE,76,2.0,3.0,49,0.00,,,0.00,0,Wunderground v.1.15,2013-03-04 11:04:00,
2013-03-04 05:07:00,21.6,5.4,30.17,East,90,2.0,5.0,49,0.00,,,0.00,0,Wunderground v.1.15,2013-03-04 11:07:00,
2013-03-04 05:09:00,21.6,4.9,30.17,East,88,2.0,5.0,48,0.00,,,0.00,0,Wunderground v.1.15,2013-03-04 11:09:00,
2013-03-04 05:12:00,21.6,4.9,30.17,ESE,108,2.0,6.0,48,0.00,,,0.00,0,Wunderground v.1.15,2013-03-04 11:12:00,
2013-03-04 05:13:00,21.6,4.4,30.17,East,94,3.0,6.0,47,0.00,,,0.00,0,Wunderground v.1.15,2013-03-04 11:13:00,
2013-03-04 05:14:00,21.6,4.4,30.17,East,84,3.0,6.0,47,0.00,,,0.00,0,Wunderground v.1.15,2013-03-04 11:14:00,
2013-03-04 05:17:00,21.6,4.4,30.17,East,93,3.0,6.0,47,0.00,,,0.00,0,Wunderground v.1.15,2013-03-04 11:17:00,
2013-03-04 05:18:00,21.6,4.4,30.17,East,83,3.0,6.0,47,0.00,,,0.00,0,Wunderground v.1.15,2013-03-04 11:18:00,
2013-03-04 05:23:00,21.5,4.8,30.17,ENE,64,3.0,3.0,48,0.00,,,0.00,0,Wunderground v.1.15,2013-03-04 11:23:00,
2013-03-04 05:26:00,21.5,4.4,30.17,East,96,2.0,3.0,47,0.00,,,0.00,0,Wunderground v.1.15,2013-03-04 11:26:00,
2013-03-04 05:30:00,21.4,4.3,30.17,East,84,1.0,1.0,47,0.00,,,0.00,0,Wunderground v.1.15,2013-03-04 11:30:00,
2013-03-04 05:31:00,21.4,4.3,30.17,NE,51,1.0,2.0,47,0.00,,,0.00,0,Wunderground v.1.15,2013-03-04 11:31:00,
2013-03-04 05:32:00,21.5,4.4,30.17,ENE,59,1.0,4.0,47,0.00,,,0.00,0,Wunderground v.1.15,2013-03-04 11:32:00,
2013-03-04 05:36:00,21.4,4.3,30.17,ENE,76,1.0,4.0,47,0.00,,,0.00,0,Wunderground v.1.15,2013-03-04 11:36:00,
2013-03-04 05:37:00,21.4,4.3,30.17,East,84,1.0,4.0,47,0.00,,,0.00,0,Wunderground v.1.15,2013-03-04 11:37:00,
2013-03-04 05:41:00,21.3,4.2,30.17,East,97,2.0,5.0,47,0.00,,,0.00,0,Wunderground v.1.15,2013-03-04 11:41:00,
2013-03-04 05:42:00,21.3,4.2,30.17,ENE,73,2.0,5.0,47,0.00,,,0.00,0,Wunderground v.1.15,2013-03-04 11:42:00,
2013-03-04 05:43:00,21.3,4.2,30.17,East,86,2.0,5.0,47,0.00,,,0.00,0,Wunderground v.1.15,2013-03-04 11:43:00,
2013-03-04 05:44:00,21.3,4.2,30.17,East,97,2.0,5.0,47,0.00,,,0.00,0,Wunderground v.1.15,2013-03-04 11:44:00,
2013-03-04 05:46:00,21.3,4.2,30.17,ENE,61,3.0,5.0,47,0.00,,,0.00,0,Wunderground v.1.15,2013-03-04 11:46:00,
2013-03-04 05:50:00,21.3,4.2,30.17,ESE,105,2.0,5.0,47,0.00,,,0.00,0,Wunderground v.1.15,2013-03-04 11:50:00,
2013-03-04 05:53:00,21.3,3.7,30.17,East,82,3.0,5.0,46,0.00,,,0.00,0,Wunderground v.1.15,2013-03-04 11:53:00,
2013-03-04 05:55:00,21.3,4.2,30.17,East,82,2.0,5.0,47,0.00,,,0.00,0,Wunderground v.1.15,2013-03-04 11:55:00,
2013-03-04 05:58:00,21.3,4.2,30.17,East,81,1.0,5.0,47,0.00,,,0.00,0,Wunderground v.1.15,2013-03-04 11:58:00,
2013-03-04 06:00:00,21.3,4.2,30.17,East,81,1.0,1.0,47,0.00,,,0.00,0,Wunderground v.1.15,2013-03-04 12:00:00,
2013-03-04 06:01:00,21.3,4.6,30.17,East,81,1.0,1.0,48,0.00,,,0.00,0,Wunderground v.1.15,2013-03-04 12:01:00,
2013-03-04 06:03:00,21.2,4.5,30.17,ESE,109,0.0,4.0,48,0.00,,,0.00,0,Wunderground v.1.15,2013-03-04 12:03:00,
2013-03-04 06:05:00,21.2,4.1,30.17,ESE,103,0.0,4.0,47,0.00,,,0.00,0,Wunderground v.1.15,2013-03-04 12:05:00,
2013-03-04 06:06:00,21.2,4.1,30.17,ESE,103,1.0,4.0,47,0.00,,,0.00,0,Wunderground v.1.15,2013-03-04 12:06:00,
2013-03-04 06:09:00,21.2,4.1,30.17,ESE,103,1.0,4.0,47,0.00,,,0.00,0,Wunderground v.1.15,2013-03-04 12:09:00,
2013-03-04 06:10:00,21.2,4.1,30.17,ESE,103,1.0,1.0,47,0.00,,,0.00,0,Wunderground v.1.15,2013-03-04 12:10:00,
2013-03-04 06:12:00,21.2,4.1,30.17,East,81,1.0,3.0,47,0.00,,,0.00,0,Wunderground v.1.15,2013-03-04 12:12:00,
2013-03-04 06:13:00,21.2,3.6,30.17,ESE,119,2.0,3.0,46,0.00,,,0.00,0,Wunderground v.1.15,2013-03-04 12:13:00,
2013-03-04 06:14:00,21.3,3.7,30.17,East,93,2.0,6.0,46,0.00,,,0.00,0,Wunderground v.1.15,2013-03-04 12:14:00,
2013-03-04 06:17:00,21.3,3.7,30.17,East,86,2.0,6.0,46,0.00,,,0.00,0,Wunderground v.1.15,2013-03-04 12:17:00,
2013-03-04 06:18:00,21.3,3.7,30.17,East,99,2.0,6.0,46,0.00,,,0.00,0,Wunderground v.1.15,2013-03-04 12:18:00,
2013-03-04 06:22:00,21.3,3.7,30.17,East,94,3.0,4.0,46,0.00,,,0.00,0,Wunderground v.1.15,2013-03-04 12:22:00,
2013-03-04 06:23:00,21.3,3.7,30.17,East,94,2.0,4.0,46,0.00,,,0.00,0,Wunderground v.1.15,2013-03-04 12:23:00,
2013-03-04 06:25:00,21.3,3.7,30.17,SSE,148,2.0,4.0,46,0.00,,,0.00,0,Wunderground v.1.15,2013-03-04 12:25:00,
2013-03-04 06:28:00,21.3,4.2,30.17,East,99,2.0,4.0,47,0.00,,,0.00,0,Wunderground v.1.15,2013-03-04 12:28:00,
2013-03-04 06:29:00,21.3,3.7,30.17,East,97,2.0,4.0,46,0.00,,,0.00,0,Wunderground v.1.15,2013-03-04 12:29:00,
2013-03-04 06:32:00,21.2,4.1,30.17,East,101,2.0,4.0,47,0.00,,,0.00,0,Wunderground v.1.15,2013-03-04 12:32:00,
2013-03-04 06:34:00,21.2,3.6,30.17,East,96,2.0,5.0,46,0.00,,,0.00,0,Wunderground v.1.15,2013-03-04 12:34:00,
2013-03-04 06:36:00,21.2,3.6,30.17,East,96,2.0,5.0,46,0.00,,,0.00,0,Wunderground v.1.15,2013-03-04 12:36:00,
2013-03-04 06:42:00,21.3,4.2,30.17,SE,132,2.0,5.0,47,0.00,,,0.00,5,Wunderground v.1.15,2013-03-04 12:42:00,
2013-03-04 06:43:00,21.2,4.1,30.17,ESE,116,3.0,5.0,47,0.00,,,0.00,5,Wunderground v.1.15,2013-03-04 12:43:00,
2013-03-04 06:45:00,21.2,4.1,30.17,ESE,109,2.0,5.0,47,0.00,,,0.00,7,Wunderground v.1.15,2013-03-04 12:45:00,
2013-03-04 06:47:00,21.2,4.5,30.17,SE,144,3.0,5.0,48,0.00,,,0.00,9,Wunderground v.1.15,2013-03-04 12:47:00,
2013-03-04 06:48:00,21.2,4.5,30.17,SE,134,3.0,5.0,48,0.00,,,0.00,9,Wunderground v.1.15,2013-03-04 12:48:00,
2013-03-04 06:51:00,21.2,4.5,30.17,East,81,3.0,5.0,48,0.00,,,0.00,11,Wunderground v.1.15,2013-03-04 12:51:00,
2013-03-04 06:53:00,21.2,5.0,30.17,East,98,2.0,5.0,49,0.00,,,0.00,14,Wunderground v.1.15,2013-03-04 12:53:00,
2013-03-04 06:57:00,21.2,5.0,30.17,North,11,2.0,5.0,49,0.00,,,0.00,18,Wunderground v.1.15,2013-03-04 12:57:00,
2013-03-04 06:58:00,21.2,5.4,30.17,East,92,2.0,5.0,50,0.00,,,0.00,19,Wunderground v.1.15,2013-03-04 12:58:00,
2013-03-04 06:59:00,21.2,5.4,30.17,East,79,2.0,5.0,50,0.00,,,0.00,19,Wunderground v.1.15,2013-03-04 12:59:00,
2013-03-04 07:03:00,21.2,5.9,30.17,ENE,74,2.0,3.0,51,0.00,,,0.00,25,Wunderground v.1.15,2013-03-04 13:03:00,
2013-03-04 07:04:00,21.2,5.9,30.17,East,88,2.0,3.0,51,0.00,,,0.00,25,Wunderground v.1.15,2013-03-04 13:04:00,
2013-03-04 07:05:00,21.2,6.3,30.17,ESE,115,2.0,6.0,52,0.00,,,0.00,28,Wunderground v.1.15,2013-03-04 13:05:00,
2013-03-04 07:07:00,21.2,5.9,30.17,ENE,65,3.0,6.0,51,0.00,,,0.00,30,Wunderground v.1.15,2013-03-04 13:07:00,
2013-03-04 07:10:00,21.2,6.3,30.17,ESE,120,3.0,7.0,52,0.00,,,0.00,33,Wunderground v.1.15,2013-03-04 13:10:00,
2013-03-04 07:11:00,21.2,6.3,30.17,SE,129,3.0,7.0,52,0.00,,,0.00,35,Wunderground v.1.15,2013-03-04 13:11:00,
2013-03-04 07:13:00,21.2,6.7,30.17,ESE,118,3.0,7.0,53,0.00,,,0.00,39,Wunderground v.1.15,2013-03-04 13:13:00,
2013-03-04 07:17:00,21.2,7.1,30.17,NE,49,3.0,7.0,54,0.00,,,0.00,44,Wunderground v.1.15,2013-03-04 13:17:00,
2013-03-04 07:19:00,21.2,7.1,30.17,East,99,4.0,7.0,54,0.00,,,0.00,47,Wunderground v.1.15,2013-03-04 13:19:00,
2013-03-04 07:20:00,21.2,7.5,30.17,ENE,74,4.0,4.0,55,0.00,,,0.00,49,Wunderground v.1.15,2013-03-04 13:20:00,
2013-03-04 07:24:00,21.2,7.5,30.17,SSE,148,4.0,4.0,55,0.00,,,0.00,56,Wunderground v.1.15,2013-03-04 13:24:00,
2013-03-04 07:25:00,21.2,7.5,30.17,East,80,4.0,4.0,55,0.00,,,0.00,58,Wunderground v.1.15,2013-03-04 13:25:00,
2013-03-04 07:27:00,21.2,7.9,30.17,ENE,78,3.0,4.0,56,0.00,,,0.00,62,Wunderground v.1.15,2013-03-04 13:27:00,
2013-03-04 07:30:00,21.3,8.0,30.17,ENE,75,3.0,5.0,56,0.00,,,0.00,65,Wunderground v.1.15,2013-03-04 13:30:00,
2013-03-04 07:32:00,21.3,8.0,30.17,East,84,4.0,7.0,56,0.00,,,0.00,67,Wunderground v.1.15,2013-03-04 13:32:00,
2013-03-04 07:33:00,21.3,8.0,30.17,East,89,4.0,7.0,56,0.00,,,0.00,69,Wunderground v.1.15,2013-03-04 13:33:00,
2013-03-04 07:35:00,21.3,8.4,30.17,ESE,109,4.0,7.0,57,0.00,,,0.00,70,Wunderground v.1.15,2013-03-04 13:35:00,
2013-03-04 07:39:00,21.3,8.4,30.17,East,86,5.0,7.0,57,0.00,,,0.00,74,Wunderground v.1.15,2013-03-04 13:39:00,
2013-03-04 07:41:00,21.3,8.4,30.17,NE,46,5.0,6.0,57,0.00,,,0.00,77,Wunderground v.1.15,2013-03-04 13:41:00,
2013-03-04 07:43:00,21.3,8.8,30.17,ESE,115,5.0,6.0,58,0.00,,,0.00,79,Wunderground v.1.15,2013-03-04 13:43:00,
2013-03-04 07:46:00,21.4,8.9,30.17,East,80,5.0,6.0,58,0.00,,,0.00,81,Wunderground v.1.15,2013-03-04 13:46:00,
2013-03-04 07:48:00,21.4,9.3,30.17,ENE,76,4.0,6.0,59,0.00,,,0.00,81,Wunderground v.1.15,2013-03-04 13:48:00,
2013-03-04 07:49:00,21.4,9.3,30.17,ENE,78,4.0,6.0,59,0.00,,,0.00,81,Wunderground v.1.15,2013-03-04 13:49:00,
2013-03-04 07:55:00,21.6,9.5,30.17,ENE,77,3.0,7.0,59,0.00,,,0.00,79,Wunderground v.1.15,2013-03-04 13:55:00,
2013-03-04 07:56:00,21.6,9.5,30.17,ENE,69,3.0,7.0,59,0.00,,,0.00,79,Wunderground v.1.15,2013-03-04 13:56:00,
2013-03-04 07:58:00,21.6,9.5,30.17,ENE,77,4.0,7.0,59,0.00,,,0.00,81,Wunderground v.1.15,2013-03-04 13:58:00,
2013-03-04 07:59:00,21.6,9.5,30.17,ENE,77,4.0,7.0,59,0.00,,,0.00,83,Wunderground v.1.15,2013-03-04 13:59:00,
2013-03-04 08:04:00,21.7,9.9,30.17,East,101,4.0,7.0,60,0.00,,,0.00,91,Wunderground v.1.15,2013-03-04 14:04:00,
2013-03-04 08:09:00,21.9,10.1,30.17,ESE,111,4.0,7.0,60,0.00,,,0.00,102,Wunderground v.1.15,2013-03-04 14:09:00,
2013-03-04 08:11:00,21.9,10.5,30.17,ENE,74,4.0,4.0,61,0.00,,,0.00,104,Wunderground v.1.15,2013-03-04 14:11:00,
2013-03-04 08:12:00,21.9,10.5,30.17,East,84,4.0,4.0,61,0.00,,,0.00,105,Wunderground v.1.15,2013-03-04 14:12:00,
2013-03-04 08:15:00,22.0,10.6,30.17,ESE,122,4.0,11.0,61,0.00,,,0.00,105,Wunderground v.1.15,2013-03-04 14:15:00,
2013-03-04 08:16:00,22.0,10.6,30.17,NE,46,4.0,11.0,61,0.00,,,0.00,105,Wunderground v.1.15,2013-03-04 14:16:00,
2013-03-04 08:18:00,22.0,11.0,30.17,NE,48,4.0,11.0,62,0.00,,,0.00,105,Wunderground v.1.15,2013-03-04 14:18:00,
2013-03-04 08:19:00,22.0,11.0,30.17,East,94,4.0,11.0,62,0.00,,,0.00,104,Wunderground v.1.15,2013-03-04 14:19:00,
2013-03-04 08:20:00,22.0,11.0,30.17,East,86,4.0,4.0,62,0.00,,,0.00,104,Wunderground v.1.15,2013-03-04 14:20:00,
2013-03-04 08:24:00,22.1,11.4,30.17,ENE,65,5.0,6.0,63,0.00,,,0.00,104,Wunderground v.1.15,2013-03-04 14:24:00,
2013-03-04 08:25:00,22.1,11.4,30.17,ENE,59,5.0,7.0,63,0.00,,,0.00,104,Wunderground v.1.15,2013-03-04 14:25:00,
2013-03-04 08:26:00,22.1,11.4,30.17,NE,51,5.0,7.0,63,0.00,,,0.00,102,Wunderground v.1.15,2013-03-04 14:26:00,
2013-03-04 08:30:00,22.2,11.9,30.17,East,92,4.0,4.0,64,0.00,,,0.00,100,Wunderground v.1.15,2013-03-04 14:30:00,
2013-03-04 08:33:00,22.3,12.0,30.17,ENE,75,4.0,4.0,64,0.00,,,0.00,100,Wunderground v.1.15,2013-03-04 14:33:00,
2013-03-04 08:35:00,22.2,11.9,30.17,ENE,66,3.0,8.0,64,0.00,,,0.00,93,Wunderground v.1.15,2013-03-04 14:35:00,
2013-03-04 08:36:00,22.2,11.9,30.17,East,101,3.0,8.0,64,0.00,,,0.00,91,Wunderground v.1.15,2013-03-04 14:36:00,
2013-03-04 08:39:00,22.2,12.2,30.17,ESE,123,3.0,8.0,65,0.00,,,0.00,90,Wunderground v.1.15,2013-03-04 14:39:00,
2013-03-04 08:41:00,22.1,12.1,30.17,ESE,108,4.0,4.0,65,0.00,,,0.00,88,Wunderground v.1.15,2013-03-04 14:41:00,
2013-03-04 08:42:00,22.2,12.2,30.17,ESE,105,4.0,4.0,65,0.00,,,0.00,88,Wunderground v.1.15,2013-03-04 14:42:00,
2013-03-04 08:45:00,22.2,12.2,30.17,SE,128,4.0,4.0,65,0.00,,,0.00,88,Wunderground v.1.15,2013-03-04 14:45:00,
2013-03-04 08:47:00,22.2,12.6,30.17,ENE,65,3.0,4.0,66,0.00,,,0.00,90,Wunderground v.1.15,2013-03-04 14:47:00,
2013-03-04 08:48:00,22.3,12.7,30.17,East,92,3.0,5.0,66,0.00,,,0.00,90,Wunderground v.1.15,2013-03-04 14:48:00,
2013-03-04 08:50:00,22.3,12.7,30.17,ENE,76,3.0,5.0,66,0.00,,,0.00,91,Wunderground v.1.15,2013-03-04 14:50:00,
2013-03-04 08:53:00,22.4,12.8,30.17,ESE,121,2.0,5.0,66,0.00,,,0.00,91,Wunderground v.1.15,2013-03-04 14:53:00,
2013-03-04 08:54:00,22.4,12.8,30.17,East,90,2.0,8.0,66,0.00,,,0.00,93,Wunderground v.1.15,2013-03-04 14:54:00,
2013-03-04 08:57:00,22.4,12.8,30.17,ENE,65,4.0,8.0,66,0.00,,,0.00,95,Wunderground v.1.15,2013-03-04 14:57:00,
2013-03-04 08:58:00,22.4,12.8,30.17,ESE,115,4.0,8.0,66,0.00,,,0.00,97,Wunderground v.1.15,2013-03-04 14:58:00,
2013-03-04 08:59:00,22.4,12.8,30.17,ENE,71,4.0,8.0,66,0.00,,,0.00,98,Wunderground v.1.15,2013-03-04 14:59:00,
2013-03-04 09:03:00,22.4,13.1,30.17,ENE,61,5.0,6.0,67,0.00,,,0.00,111,Wunderground v.1.15,2013-03-04 15:03:00,
2013-03-04 09:04:00,22.5,13.2,30.17,ENE,61,5.0,7.0,67,0.00,,,0.00,113,Wunderground v.1.15,2013-03-04 15:04:00,
2013-03-04 09:05:00,22.5,13.2,30.17,ENE,71,4.0,7.0,67,0.00,,,0.00,114,Wunderground v.1.15,2013-03-04 15:05:00,
2013-03-04 09:09:00,22.5,13.2,30.17,ESE,109,5.0,10.0,67,0.00,,,0.00,123,Wunderground v.1.15,2013-03-04 15:09:00,
2013-03-04 09:11:00,22.5,13.5,30.17,ENE,78,5.0,8.0,68,0.00,,,0.00,125,Wunderground v.1.15,2013-03-04 15:11:00,
2013-03-04 09:12:00,22.5,13.2,30.17,East,86,5.0,8.0,67,0.00,,,0.00,127,Wunderground v.1.15,2013-03-04 15:12:00,
2013-03-04 09:15:00,22.5,13.5,30.17,East,84,6.0,8.0,68,0.00,,,0.00,135,Wunderground v.1.15,2013-03-04 15:15:00,
2013-03-04 09:16:00,22.6,13.6,30.17,East,88,5.0,8.0,68,0.00,,,0.00,139,Wunderground v.1.15,2013-03-04 15:16:00,
2013-03-04 09:18:00,22.7,13.7,30.17,East,92,4.0,8.0,68,0.00,,,0.00,142,Wunderground v.1.15,2013-03-04 15:18:00,
2013-03-04 09:20:00,22.7,13.7,30.17,East,89,4.0,4.0,68,0.00,,,0.00,148,Wunderground v.1.15,2013-03-04 15:20:00,
2013-03-04 09:21:00,22.8,13.8,30.17,NE,55,4.0,4.0,68,0.00,,,0.00,153,Wunderground v.1.15,2013-03-04 15:21:00,
2013-03-04 09:23:00,22.9,13.9,30.17,East,98,3.0,5.0,68,0.00,,,0.00,156,Wunderground v.1.15,2013-03-04 15:23:00,
2013-03-04 09:27:00,22.8,13.8,30.17,ENE,77,4.0,7.0,68,0.00,,,0.00,163,Wunderground v.1.15,2013-03-04 15:27:00,
2013-03-04 09:30:00,22.9,13.9,30.17,East,99,4.0,4.0,68,0.00,,,0.00,169,Wunderground v.1.15,2013-03-04 15:30:00,
2013-03-04 09:31:00,23.0,14.0,30.17,ESE,117,4.0,4.0,68,0.00,,,0.00,169,Wunderground v.1.15,2013-03-04 15:31:00,
2013-03-04 09:32:00,23.0,14.0,30.17,ENE,59,4.0,4.0,68,0.00,,,0.00,171,Wunderground v.1.15,2013-03-04 15:32:00,
2013-03-04 09:37:00,23.3,14.6,30.17,ENE,59,4.0,6.0,69,0.00,,,0.00,167,Wunderground v.1.15,2013-03-04 15:37:00,
2013-03-04 09:38:00,23.4,14.4,30.17,ENE,61,3.0,6.0,68,0.00,,,0.00,165,Wunderground v.1.15,2013-03-04 15:38:00,
2013-03-04 09:41:00,23.4,14.4,30.16,ESE,107,4.0,6.0,68,0.00,,,0.00,169,Wunderground v.1.15,2013-03-04 15:41:00,
2013-03-04 09:42:00,23.4,14.4,30.16,ENE,71,4.0,6.0,68,0.00,,,0.00,169,Wunderground v.1.15,2013-03-04 15:42:00,
2013-03-04 09:47:00,23.4,14.7,30.16,ENE,78,4.0,6.0,69,0.00,,,0.00,165,Wunderground v.1.15,2013-03-04 15:47:00,
2013-03-04 09:48:00,23.4,14.7,30.17,East,82,5.0,7.0,69,0.00,,,0.00,167,Wunderground v.1.15,2013-03-04 15:48:00,
2013-03-04 09:49:00,23.4,14.7,30.17,NE,49,5.0,7.0,69,0.00,,,0.00,167,Wunderground v.1.15,2013-03-04 15:49:00,
2013-03-04 09:50:00,23.4,14.7,30.16,East,86,6.0,6.0,69,0.00,,,0.00,169,Wunderground v.1.15,2013-03-04 15:50:00,
2013-03-04 09:52:00,23.5,14.8,30.16,ENE,64,5.0,6.0,69,0.00,,,0.00,174,Wunderground v.1.15,2013-03-04 15:52:00,
2013-03-04 09:54:00,23.5,15.1,30.16,East,97,6.0,6.0,70,0.00,,,0.00,179,Wunderground v.1.15,2013-03-04 15:54:00,
2013-03-04 09:58:00,23.4,15.4,30.16,SE,127,5.0,8.0,71,0.00,,,0.00,192,Wunderground v.1.15,2013-03-04 15:58:00,
2013-03-04 10:01:00,23.5,15.8,30.16,East,95,5.0,5.0,72,0.00,,,0.00,195,Wunderground v.1.15,2013-03-04 16:01:00,
2013-03-04 10:02:00,23.5,16.1,30.16,NE,48,5.0,11.0,73,0.00,,,0.00,197,Wunderground v.1.15,2013-03-04 16:02:00,
2013-03-04 10:06:00,23.3,16.2,30.17,ESE,112,5.0,11.0,74,0.00,,,0.00,207,Wunderground v.1.15,2013-03-04 16:06:00,
2013-03-04 10:07:00,23.2,16.4,30.17,ENE,64,5.0,11.0,75,0.00,,,0.00,213,Wunderground v.1.15,2013-03-04 16:07:00,
2013-03-04 10:08:00,23.1,16.4,30.17,East,86,5.0,11.0,75,0.00,,,0.00,213,Wunderground v.1.15,2013-03-04 16:08:00,
2013-03-04 10:11:00,23.1,17.0,30.17,East,87,5.0,6.0,77,0.00,,,0.00,218,Wunderground v.1.15,2013-03-04 16:11:00,
2013-03-04 10:13:00,23.0,16.9,30.16,ENE,63,4.0,6.0,77,0.00,,,0.00,218,Wunderground v.1.15,2013-03-04 16:13:00,
2013-03-04 10:14:00,23.0,16.9,30.16,ESE,109,4.0,6.0,77,0.00,,,0.00,216,Wunderground v.1.15,2013-03-04 16:14:00,
2013-03-04 10:16:00,22.9,17.1,30.17,ESE,119,5.0,6.0,78,0.00,,,0.00,209,Wunderground v.1.15,2013-03-04 16:16:00,
2013-03-04 10:19:00,22.8,17.3,30.17,ENE,71,5.0,6.0,79,0.00,,,0.00,204,Wunderground v.1.15,2013-03-04 16:19:00,
2013-03-04 10:20:00,22.8,17.3,30.17,ENE,78,6.0,6.0,79,0.00,,,0.00,204,Wunderground v.1.15,2013-03-04 16:20:00,
2013-03-04 10:25:00,22.8,17.8,30.17,ENE,76,6.0,10.0,81,0.00,,,0.00,204,Wunderground v.1.15,2013-03-04 16:25:00,
2013-03-04 10:26:00,22.8,17.8,30.17,East,94,6.0,11.0,81,0.00,,,0.00,197,Wunderground v.1.15,2013-03-04 16:26:00,
2013-03-04 10:29:00,22.8,18.1,30.17,ESE,119,6.0,11.0,82,0.00,,,0.00,185,Wunderground v.1.15,2013-03-04 16:29:00,
2013-03-04 10:30:00,22.8,18.1,30.17,NE,40,6.0,6.0,82,0.00,,,0.00,181,Wunderground v.1.15,2013-03-04 16:30:00,
2013-03-04 10:31:00,22.9,18.2,30.17,East,87,6.0,8.0,82,0.00,,,0.00,174,Wunderground v.1.15,2013-03-04 16:31:00,
2013-03-04 10:32:00,22.9,18.2,30.17,ENE,72,6.0,8.0,82,0.00,,,0.00,171,Wunderground v.1.15,2013-03-04 16:32:00,
2013-03-04 10:36:00,23.0,18.6,30.16,ENE,61,6.0,11.0,83,0.00,,,0.00,160,Wunderground v.1.15,2013-03-04 16:36:00,
2013-03-04 10:38:00,23.0,18.6,30.16,ESE,106,6.0,11.0,83,0.00,,,0.00,162,Wunderground v.1.15,2013-03-04 16:38:00,
2013-03-04 10:39:00,23.0,18.6,30.16,NE,52,6.0,11.0,83,0.00,,,0.00,163,Wunderground v.1.15,2013-03-04 16:39:00,
2013-03-04 10:43:00,23.0,18.3,30.16,ENE,67,8.0,13.0,82,0.00,,,0.00,156,Wunderground v.1.15,2013-03-04 16:43:00,
2013-03-04 10:44:00,23.0,18.3,30.16,East,81,8.0,13.0,82,0.00,,,0.00,151,Wunderground v.1.15,2013-03-04 16:44:00,
2013-03-04 10:46:00,23.0,20.2,30.16,ENE,63,9.0,13.0,89,0.00,,,0.00,142,Wunderground v.1.15,2013-03-04 16:46:00,
2013-03-04 10:51:00,23.1,18.4,30.17,East,100,9.0,9.0,82,0.00,,,0.00,127,Wunderground v.1.15,2013-03-04 16:51:00,
2013-03-04 10:52:00,23.1,18.4,30.16,East,91,9.0,9.0,82,0.00,,,0.00,128,Wunderground v.1.15,2013-03-04 16:52:00,
2013-03-04 10:55:00,23.2,18.5,30.16,ENE,57,7.0,9.0,82,0.00,,,0.00,132,Wunderground v.1.15,2013-03-04 16:55:00,
2013-03-04 10:56:00,23.3,18.6,30.16,SE,142,7.0,12.0,82,0.00,,,0.00,134,Wunderground v.1.15,2013-03-04 16:56:00,
2013-03-04 10:59:00,23.3,18.9,30.16,ENE,64,6.0,12.0,83,0.00,,,0.00,132,Wunderground v.1.15,2013-03-04 16:59:00,
2013-03-04 11:01:00,23.3,18.9,30.16,ENE,58,6.0,14.0,83,0.00,,,0.00,132,Wunderground v.1.15,2013-03-04 17:01:00,
2013-03-04 11:05:00,23.3,18.9,30.16,ENE,59,6.0,14.0,83,0.00,,,0.00,139,Wunderground v.1.15,2013-03-04 17:05:00,
2013-03-04 11:06:00,23.3,18.9,30.16,ESE,115,6.0,14.0,83,0.00,,,0.00,144,Wunderground v.1.15,2013-03-04 17:06:00,
2013-03-04 11:09:00,23.3,18.9,30.16,ESE,109,7.0,14.0,83,0.00,,,0.00,149,Wunderground v.1.15,2013-03-04 17:09:00,
2013-03-04 11:12:00,23.4,19.0,30.16,ENE,74,6.0,8.0,83,0.00,,,0.01,156,Wunderground v.1.15,2013-03-04 17:12:00,
2013-03-04 11:13:00,23.4,19.0,30.16,ENE,63,7.0,8.0,83,0.00,,,0.01,158,Wunderground v.1.15,2013-03-04 17:13:00,
2013-03-04 11:14:00,23.4,19.0,30.16,East,79,7.0,8.0,83,0.00,,,0.01,162,Wunderground v.1.15,2013-03-04 17:14:00,
2013-03-04 11:18:00,23.5,19.4,30.16,ENE,69,6.0,8.0,84,0.00,,,0.01,176,Wunderground v.1.15,2013-03-04 17:18:00,
2013-03-04 11:19:00,23.5,19.4,30.16,NE,53,6.0,8.0,84,0.00,,,0.01,178,Wunderground v.1.15,2013-03-04 17:19:00,
2013-03-04 11:21:00,23.5,19.1,30.16,East,89,5.0,6.0,83,0.00,,,0.01,178,Wunderground v.1.15,2013-03-04 17:21:00,
2013-03-04 11:24:00,23.6,19.2,30.16,East,84,4.0,6.0,83,0.00,,,0.01,179,Wunderground v.1.15,2013-03-04 17:24:00,
2013-03-04 11:27:00,23.6,19.2,30.16,ENE,72,4.0,6.0,83,0.00,,,0.01,181,Wunderground v.1.15,2013-03-04 17:27:00,
2013-03-04 11:31:00,23.6,19.2,30.16,NNE,22,5.0,8.0,83,0.00,,,0.01,176,Wunderground v.1.15,2013-03-04 17:31:00,
2013-03-04 11:32:00,23.6,19.2,30.16,ESE,114,5.0,8.0,83,0.00,,,0.01,176,Wunderground v.1.15,2013-03-04 17:32:00,
2013-03-04 11:36:00,23.8,19.4,30.16,East,79,6.0,8.0,83,0.00,,,0.01,174,Wunderground v.1.15,2013-03-04 17:36:00,
2013-03-04 11:39:00,23.9,19.5,30.16,East,88,6.0,9.0,83,0.00,,,0.01,172,Wunderground v.1.15,2013-03-04 17:39:00,
2013-03-04 11:41:00,24.0,19.6,30.16,ESE,121,5.0,6.0,83,0.00,,,0.01,167,Wunderground v.1.15,2013-03-04 17:41:00,
2013-03-04 11:43:00,24.0,19.9,30.16,ENE,76,5.0,6.0,84,0.00,,,0.01,162,Wunderground v.1.15,2013-03-04 17:43:00,
2013-03-04 11:46:00,24.1,19.7,30.16,ENE,78,4.0,11.0,83,0.00,,,0.01,155,Wunderground v.1.15,2013-03-04 17:46:00,
2013-03-04 11:47:00,24.1,20.0,30.16,ENE,71,4.0,11.0,84,0.00,,,0.01,153,Wunderground v.1.15,2013-03-04 17:47:00,
2013-03-04 11:48:00,24.0,19.6,30.16,SSE,150,4.0,12.0,83,0.00,,,0.01,153,Wunderground v.1.15,2013-03-04 17:48:00,
2013-03-04 11:51:00,24.0,19.3,30.16,East,88,6.0,10.0,82,0.00,,,0.01,153,Wunderground v.1.15,2013-03-04 17:51:00,
2013-03-04 11:56:00,24.2,19.5,30.16,ENE,76,7.0,10.0,82,0.00,,,0.01,153,Wunderground v.1.15,2013-03-04 17:56:00,
2013-03-04 11:58:00,24.2,19.5,30.16,East,99,7.0,10.0,82,0.00,,,0.01,148,Wunderground v.1.15,2013-03-04 17:58:00,
2013-03-04 12:00:00,24.3,19.6,30.16,ENE,63,6.0,6.0,82,0.00,,,0.01,144,Wunderground v.1.15,2013-03-04 18:00:00,
2013-03-04 12:02:00,24.4,20.0,30.16,ESE,103,5.0,8.0,83,0.00,,,0.01,137,Wunderground v.1.15,2013-03-04 18:02:00,
2013-03-04 12:03:00,24.4,20.0,30.16,ENE,69,6.0,8.0,83,0.00,,,0.01,134,Wunderground v.1.15,2013-03-04 18:03:00,
2013-03-04 12:04:00,24.4,20.0,30.16,ENE,66,6.0,8.0,83,0.00,,,0.01,132,Wunderground v.1.15,2013-03-04 18:04:00,
2013-03-04 12:06:00,24.4,20.0,30.16,ENE,61,6.0,8.0,83,0.00,,,0.01,130,Wunderground v.1.15,2013-03-04 18:06:00,
2013-03-04 12:08:00,24.4,20.0,30.16,East,93,6.0,11.0,83,0.00,,,0.01,132,Wunderground v.1.15,2013-03-04 18:08:00,
2013-03-04 12:10:00,24.4,20.0,30.16,SSE,163,7.0,7.0,83,0.00,,,0.01,137,Wunderground v.1.15,2013-03-04 18:10:00,
2013-03-04 12:13:00,24.5,20.1,30.16,ENE,62,7.0,8.0,83,0.00,,,0.01,146,Wunderground v.1.15,2013-03-04 18:13:00,
2013-03-04 12:15:00,24.5,19.8,30.15,East,96,7.0,10.0,82,0.00,,,0.01,155,Wunderground v.1.15,2013-03-04 18:15:00,
2013-03-04 12:16:00,24.5,19.8,30.15,East,86,7.0,10.0,82,0.00,,,0.01,160,Wunderground v.1.15,2013-03-04 18:16:00,
2013-03-04 12:19:00,24.6,19.9,30.15,East,80,6.0,10.0,82,0.00,,,0.01,169,Wunderground v.1.15,2013-03-04 18:19:00,
2013-03-04 12:22:00,24.6,19.6,30.15,ENE,71,6.0,10.0,81,0.00,,,0.01,178,Wunderground v.1.15,2013-03-04 18:22:00,
2013-03-04 12:24:00,24.7,19.7,30.15,ESE,120,6.0,10.0,81,0.00,,,0.01,183,Wunderground v.1.15,2013-03-04 18:24:00,
2013-03-04 12:25:00,24.8,19.8,30.15,ESE,114,6.0,10.0,81,0.00,,,0.01,183,Wunderground v.1.15,2013-03-04 18:25:00,
2013-03-04 12:27:00,24.8,19.8,30.15,ENE,73,6.0,10.0,81,0.00,,,0.01,183,Wunderground v.1.15,2013-03-04 18:27:00,
2013-03-04 12:29:00,24.9,19.9,30.14,East,94,7.0,11.0,81,0.00,,,0.01,186,Wunderground v.1.15,2013-03-04 18:29:00,
2013-03-04 12:30:00,24.9,19.9,30.14,East,82,7.0,7.0,81,0.00,,,0.01,186,Wunderground v.1.15,2013-03-04 18:30:00,
2013-03-04 12:33:00,25.0,20.0,30.14,East,93,7.0,7.0,81,0.00,,,0.01,193,Wunderground v.1.15,2013-03-04 18:33:00,
2013-03-04 12:36:00,25.1,19.8,30.14,ENE,75,6.0,7.0,80,0.00,,,0.01,192,Wunderground v.1.15,2013-03-04 18:36:00,
2013-03-04 12:40:00,25.1,20.1,30.14,ESE,104,5.0,5.0,81,0.00,,,0.01,185,Wunderground v.1.15,2013-03-04 18:40:00,
2013-03-04 12:42:00,25.2,19.9,30.14,SSE,148,5.0,7.0,80,0.00,,,0.01,174,Wunderground v.1.15,2013-03-04 18:42:00,
2013-03-04 12:43:00,25.2,19.9,30.14,East,80,5.0,7.0,80,0.00,,,0.01,169,Wunderground v.1.15,2013-03-04 18:43:00,
2013-03-04 12:47:00,25.2,19.9,30.13,ENE,77,5.0,7.0,80,0.00,,,0.01,165,Wunderground v.1.15,2013-03-04 18:47:00,
2013-03-04 12:48:00,25.2,19.9,30.14,East,83,5.0,7.0,80,0.00,,,0.01,165,Wunderground v.1.15,2013-03-04 18:48:00,
2013-03-04 12:53:00,25.2,19.6,30.13,East,84,6.0,7.0,79,0.00,,,0.01,167,Wunderground v.1.15,2013-03-04 18:53:00,
2013-03-04 12:55:00,25.2,19.6,30.13,East,85,6.0,7.0,79,0.00,,,0.01,165,Wunderground v.1.15,2013-03-04 18:55:00,
2013-03-04 12:56:00,25.2,19.6,30.13,NE,55,6.0,8.0,79,0.00,,,0.01,163,Wunderground v.1.15,2013-03-04 18:56:00,
2013-03-04 13:00:00,25.3,19.7,30.14,NE,53,7.0,7.0,79,0.00,,,0.01,153,Wunderground v.1.15,2013-03-04 19:00:00,
2013-03-04 13:01:00,25.3,19.7,30.13,ENE,69,7.0,7.0,79,0.00,,,0.01,155,Wunderground v.1.15,2013-03-04 19:01:00,
2013-03-04 13:05:00,25.3,19.7,30.13,East,81,7.0,10.0,79,0.00,,,0.01,160,Wunderground v.1.15,2013-03-04 19:05:00,
2013-03-04 13:06:00,25.3,19.7,30.13,ESE,105,7.0,10.0,79,0.00,,,0.01,160,Wunderground v.1.15,2013-03-04 19:06:00,
2013-03-04 13:07:00,25.4,19.8,30.13,NE,55,6.0,10.0,79,0.00,,,0.01,162,Wunderground v.1.15,2013-03-04 19:07:00,
2013-03-04 13:09:00,25.4,19.8,30.13,ESE,107,6.0,10.0,79,0.00,,,0.01,165,Wunderground v.1.15,2013-03-04 19:09:00,
2013-03-04 13:11:00,25.4,19.5,30.13,East,97,6.0,7.0,78,0.00,,,0.01,169,Wunderground v.1.15,2013-03-04 19:11:00,
2013-03-04 13:14:00,25.6,19.7,30.13,East,94,6.0,12.0,78,0.00,,,0.01,172,Wunderground v.1.15,2013-03-04 19:14:00,
2013-03-04 13:15:00,25.6,19.7,30.13,ENE,70,6.0,12.0,78,0.00,,,0.01,176,Wunderground v.1.15,2013-03-04 19:15:00,
2013-03-04 13:17:00,25.7,19.5,30.13,ENE,66,6.0,12.0,77,0.00,,,0.01,179,Wunderground v.1.15,2013-03-04 19:17:00,
2013-03-04 13:19:00,25.7,19.5,30.13,East,87,6.0,12.0,77,0.00,,,0.01,185,Wunderground v.1.15,2013-03-04 19:19:00,
2013-03-04 13:21:00,25.8,19.6,30.13,East,89,7.0,8.0,77,0.00,,,0.01,188,Wunderground v.1.15,2013-03-04 19:21:00,
2013-03-04 13:24:00,25.9,19.4,30.13,ENE,67,7.0,8.0,76,0.00,,,0.01,195,Wunderground v.1.15,2013-03-04 19:24:00,
2013-03-04 13:25:00,25.9,19.4,30.13,ESE,115,8.0,8.0,76,0.00,,,0.01,199,Wunderground v.1.15,2013-03-04 19:25:00,
2013-03-04 13:26:00,25.9,19.4,30.13,ESE,109,8.0,8.0,76,0.00,,,0.01,199,Wunderground v.1.15,2013-03-04 19:26:00,
2013-03-04 13:30:00,26.0,19.5,30.12,ESE,106,8.0,8.0,76,0.00,,,0.01,216,Wunderground v.1.15,2013-03-04 19:30:00,
2013-03-04 13:35:00,26.2,19.7,30.12,East,94,8.0,12.0,76,0.00,,,0.01,243,Wunderground v.1.15,2013-03-04 19:35:00,
2013-03-04 13:38:00,26.3,19.8,30.12,East,95,8.0,12.0,76,0.00,,,0.01,264,Wunderground v.1.15,2013-03-04 19:38:00,
2013-03-04 13:41:00,26.4,19.9,30.12,ENE,63,7.0,8.0,76,0.00,,,0.01,271,Wunderground v.1.15,2013-03-04 19:41:00,
2013-03-04 13:45:00,26.5,20.0,30.12,East,96,6.0,8.0,76,0.00,,,0.01,285,Wunderground v.1.15,2013-03-04 19:45:00,
2013-03-04 13:49:00,26.6,20.1,30.12,East,82,5.0,8.0,76,0.00,,,0.01,302,Wunderground v.1.15,2013-03-04 19:49:00,
2013-03-04 13:50:00,26.7,20.1,30.12,ESE,119,5.0,5.0,76,0.00,,,0.01,301,Wunderground v.1.15,2013-03-04 19:50:00,
2013-03-04 13:52:00,26.8,20.2,30.12,ESE,107,4.0,5.0,76,0.00,,,0.01,281,Wunderground v.1.15,2013-03-04 19:52:00,
2013-03-04 13:55:00,26.9,20.7,30.12,ENE,68,4.0,5.0,77,0.00,,,0.01,264,Wunderground v.1.15,2013-03-04 19:55:00,
2013-03-04 14:00:00,26.9,20.3,30.12,East,100,4.0,8.0,76,0.00,,,0.01,225,Wunderground v.1.15,2013-03-04 20:00:00,
2013-03-04 14:01:00,26.9,20.3,30.12,SE,136,4.0,8.0,76,0.00,,,0.01,218,Wunderground v.1.15,2013-03-04 20:01:00,
2013-03-04 14:06:00,26.7,20.5,30.12,East,88,6.0,9.0,77,0.00,,,0.01,206,Wunderground v.1.15,2013-03-04 20:06:00,
2013-03-04 14:07:00,26.7,20.5,30.12,East,98,6.0,9.0,77,0.00,,,0.01,206,Wunderground v.1.15,2013-03-04 20:07:00,
2013-03-04 14:12:00,26.8,20.6,30.12,SE,125,6.0,9.0,77,0.00,,,0.01,195,Wunderground v.1.15,2013-03-04 20:12:00,
2013-03-04 14:14:00,26.8,20.6,30.11,ESE,105,5.0,9.0,77,0.00,,,0.01,197,Wunderground v.1.15,2013-03-04 20:14:00,
2013-03-04 14:17:00,26.7,20.5,30.11,ESE,115,5.0,9.0,77,0.00,,,0.01,202,Wunderground v.1.15,2013-03-04 20:17:00,
2013-03-04 14:18:00,26.7,20.8,30.11,ENE,73,5.0,9.0,78,0.00,,,0.01,204,Wunderground v.1.15,2013-03-04 20:18:00,
2013-03-04 14:20:00,26.8,20.9,30.11,ENE,78,5.0,5.0,78,0.00,,,0.01,204,Wunderground v.1.15,2013-03-04 20:20:00,
2013-03-04 14:21:00,26.9,21.0,30.11,East,90,5.0,5.0,78,0.00,,,0.01,204,Wunderground v.1.15,2013-03-04 20:21:00,
2013-03-04 14:24:00,26.8,20.9,30.11,ESE,104,5.0,8.0,78,0.00,,,0.01,197,Wunderground v.1.15,2013-03-04 20:24:00,
2013-03-04 14:26:00,26.9,21.0,30.11,East,97,5.0,8.0,78,0.00,,,0.01,183,Wunderground v.1.15,2013-03-04 20:26:00,
2013-03-04 14:27:00,26.8,20.9,30.11,ESE,113,5.0,8.0,78,0.00,,,0.01,178,Wunderground v.1.15,2013-03-04 20:27:00,
2013-03-04 14:32:00,27.0,21.1,30.11,East,90,5.0,6.0,78,0.00,,,0.01,149,Wunderground v.1.15,2013-03-04 20:32:00,
2013-03-04 14:34:00,27.0,21.1,30.10,ESE,109,5.0,6.0,78,0.00,,,0.01,148,Wunderground v.1.15,2013-03-04 20:34:00,
2013-03-04 14:35:00,27.0,21.1,30.10,SE,126,4.0,11.0,78,0.00,,,0.01,146,Wunderground v.1.15,2013-03-04 20:35:00,
2013-03-04 14:37:00,27.0,21.1,30.10,East,100,4.0,11.0,78,0.00,,,0.01,141,Wunderground v.1.15,2013-03-04 20:37:00,
2013-03-04 14:40:00,27.1,21.2,30.10,East,96,5.0,5.0,78,0.00,,,0.01,120,Wunderground v.1.15,2013-03-04 20:40:00,
2013-03-04 14:42:00,27.2,21.2,30.10,SE,127,5.0,6.0,78,0.00,,,0.01,113,Wunderground v.1.15,2013-03-04 20:42:00,
2013-03-04 14:44:00,27.2,20.9,30.10,ENE,63,4.0,6.0,77,0.00,,,0.01,113,Wunderground v.1.15,2013-03-04 20:44:00,
2013-03-04 14:47:00,27.3,20.7,30.10,SSE,161,4.0,6.0,76,0.00,,,0.01,116,Wunderground v.1.15,2013-03-04 20:47:00,
2013-03-04 14:49:00,27.4,21.1,30.10,SSE,154,4.0,6.0,77,0.00,,,0.01,120,Wunderground v.1.15,2013-03-04 20:49:00,
2013-03-04 14:54:00,27.6,21.0,30.11,NE,42,3.0,6.0,76,0.00,,,0.01,118,Wunderground v.1.15,2013-03-04 20:54:00,
2013-03-04 14:59:00,27.7,20.8,30.11,East,98,4.0,6.0,75,0.00,,,0.01,111,Wunderground v.1.15,2013-03-04 20:59:00,
2013-03-04 15:00:00,27.8,20.9,30.11,ENE,63,4.0,4.0,75,0.00,,,0.01,111,Wunderground v.1.15,2013-03-04 21:00:00,
2013-03-04 15:01:00,27.8,20.9,30.11,ENE,73,4.0,4.0,75,0.00,,,0.01,113,Wunderground v.1.15,2013-03-04 21:01:00,
2013-03-04 15:04:00,27.9,20.7,30.10,East,79,4.0,4.0,74,0.00,,,0.01,116,Wunderground v.1.15,2013-03-04 21:04:00,
2013-03-04 15:08:00,28.0,20.5,30.10,ENE,74,4.0,6.0,73,0.00,,,0.01,114,Wunderground v.1.15,2013-03-04 21:08:00,
2013-03-04 15:12:00,28.1,20.6,30.10,ENE,64,4.0,4.0,73,0.00,,,0.01,105,Wunderground v.1.15,2013-03-04 21:12:00,
2013-03-04 15:13:00,28.1,20.9,30.10,East,88,4.0,5.0,74,0.00,,,0.01,104,Wunderground v.1.15,2013-03-04 21:13:00,
2013-03-04 15:19:00,28.3,20.4,30.10,ENE,65,4.0,6.0,72,0.00,,,0.01,107,Wunderground v.1.15,2013-03-04 21:19:00,
2013-03-04 15:22:00,28.4,20.5,30.10,East,92,4.0,5.0,72,0.00,,,0.01,107,Wunderground v.1.15,2013-03-04 21:22:00,
2013-03-04 15:24:00,28.5,20.3,30.10,ESE,103,5.0,5.0,71,0.00,,,0.01,105,Wunderground v.1.15,2013-03-04 21:24:00,
2013-03-04 15:25:00,28.5,20.3,30.10,ESE,114,5.0,5.0,71,0.00,,,0.01,105,Wunderground v.1.15,2013-03-04 21:25:00,
2013-03-04 15:28:00,28.6,20.4,30.10,SE,130,5.0,5.0,71,0.00,,,0.01,111,Wunderground v.1.15,2013-03-04 21:28:00,
2013-03-04 15:29:00,28.6,20.4,30.10,SE,135,4.0,5.0,71,0.00,,,0.01,114,Wunderground v.1.15,2013-03-04 21:29:00,
2013-03-04 15:31:00,28.7,20.1,30.10,East,87,4.0,6.0,70,0.00,,,0.01,123,Wunderground v.1.15,2013-03-04 21:31:00,
2013-03-04 15:32:00,28.7,20.1,30.10,SE,137,4.0,6.0,70,0.00,,,0.01,128,Wunderground v.1.15,2013-03-04 21:32:00,
2013-03-04 15:36:00,29.0,20.1,30.10,NE,41,4.0,8.0,69,0.00,,,0.01,142,Wunderground v.1.15,2013-03-04 21:36:00,
2013-03-04 15:37:00,29.0,20.1,30.10,ESE,115,5.0,8.0,69,0.00,,,0.01,142,Wunderground v.1.15,2013-03-04 21:37:00,
2013-03-04 15:41:00,29.2,19.2,30.09,ENE,69,7.0,8.0,66,0.00,,,0.01,120,Wunderground v.1.15,2013-03-04 21:41:00,
2013-03-04 15:42:00,29.2,19.2,30.09,ESE,113,7.0,8.0,66,0.00,,,0.01,113,Wunderground v.1.15,2013-03-04 21:42:00,
2013-03-04 15:43:00,29.3,19.3,30.09,ENE,65,8.0,8.0,66,0.00,,,0.01,105,Wunderground v.1.15,2013-03-04 21:43:00,
2013-03-04 15:46:00,29.4,19.4,30.09,ENE,58,8.0,10.0,66,0.00,,,0.01,97,Wunderground v.1.15,2013-03-04 21:46:00,
2013-03-04 15:47:00,29.4,19.1,30.09,ENE,57,8.0,10.0,65,0.00,,,0.01,97,Wunderground v.1.15,2013-03-04 21:47:00,
2013-03-04 15:48:00,29.4,19.1,30.09,ENE,71,8.0,10.0,65,0.00,,,0.01,97,Wunderground v.1.15,2013-03-04 21:48:00,
2013-03-04 15:51:00,29.4,19.1,30.09,ENE,67,7.0,7.0,65,0.00,,,0.01,97,Wunderground v.1.15,2013-03-04 21:51:00,
2013-03-04 15:54:00,29.5,19.2,30.09,ESE,121,7.0,7.0,65,0.00,,,0.01,95,Wunderground v.1.15,2013-03-04 21:54:00,
2013-03-04 15:55:00,29.5,19.2,30.10,SE,127,7.0,7.0,65,0.00,,,0.01,95,Wunderground v.1.15,2013-03-04 21:55:00,
2013-03-04 15:57:00,29.5,19.2,30.10,ENE,59,6.0,7.0,65,0.00,,,0.01,93,Wunderground v.1.15,2013-03-04 21:57:00,
2013-03-04 16:00:00,29.5,19.2,30.10,ENE,71,5.0,13.0,65,0.00,,,0.01,95,Wunderground v.1.15,2013-03-04 22:00:00,
2013-03-04 16:01:00,29.5,19.2,30.10,NE,37,5.0,13.0,65,0.00,,,0.01,95,Wunderground v.1.15,2013-03-04 22:01:00,
2013-03-04 16:02:00,29.5,19.2,30.10,ESE,121,5.0,13.0,65,0.00,,,0.01,97,Wunderground v.1.15,2013-03-04 22:02:00,
2013-03-04 16:07:00,29.5,19.2,30.10,ENE,58,8.0,13.0,65,0.00,,,0.01,111,Wunderground v.1.15,2013-03-04 22:07:00,
2013-03-04 16:08:00,29.5,19.5,30.10,East,101,8.0,13.0,66,0.00,,,0.01,113,Wunderground v.1.15,2013-03-04 22:08:00,
2013-03-04 16:09:00,29.5,19.2,30.10,East,90,8.0,13.0,65,0.00,,,0.01,113,Wunderground v.1.15,2013-03-04 22:09:00,
2013-03-04 16:11:00,29.5,19.5,30.10,East,80,8.0,8.0,66,0.00,,,0.01,104,Wunderground v.1.15,2013-03-04 22:11:00,
2013-03-04 16:14:00,29.6,19.6,30.10,East,101,7.0,8.0,66,0.00,,,0.01,102,Wunderground v.1.15,2013-03-04 22:14:00,
2013-03-04 16:16:00,29.6,19.6,30.10,NNE,32,6.0,8.0,66,0.00,,,0.01,116,Wunderground v.1.15,2013-03-04 22:16:00,
2013-03-04 16:17:00,29.6,19.6,30.10,NNE,22,6.0,8.0,66,0.00,,,0.01,123,Wunderground v.1.15,2013-03-04 22:17:00,
2013-03-04 16:19:00,29.7,19.7,30.10,NE,51,5.0,8.0,66,0.00,,,0.01,127,Wunderground v.1.15,2013-03-04 22:19:00,
2013-03-04 16:24:00,29.7,19.7,30.10,East,92,6.0,14.0,66,0.00,,,0.01,100,Wunderground v.1.15,2013-03-04 22:24:00,
2013-03-04 16:29:00,29.7,20.1,30.10,East,95,7.0,14.0,67,0.00,,,0.01,84,Wunderground v.1.15,2013-03-04 22:29:00,
2013-03-04 16:30:00,29.7,20.4,30.10,ESE,102,7.0,15.0,68,0.00,,,0.01,81,Wunderground v.1.15,2013-03-04 22:30:00,
2013-03-04 16:31:00,29.7,20.4,30.10,ENE,65,7.0,15.0,68,0.00,,,0.01,77,Wunderground v.1.15,2013-03-04 22:31:00,
2013-03-04 16:34:00,29.6,20.3,30.10,ENE,65,7.0,15.0,68,0.00,,,0.01,67,Wunderground v.1.15,2013-03-04 22:34:00,
2013-03-04 16:35:00,29.6,20.7,30.10,SE,138,8.0,15.0,69,0.00,,,0.01,65,Wunderground v.1.15,2013-03-04 22:35:00,
2013-03-04 16:39:00,29.5,20.6,30.10,East,101,8.0,15.0,69,0.00,,,0.01,56,Wunderground v.1.15,2013-03-04 22:39:00,
2013-03-04 16:41:00,29.6,20.7,30.10,NE,48,7.0,7.0,69,0.00,,,0.01,51,Wunderground v.1.15,2013-03-04 22:41:00,
2013-03-04 16:43:00,29.5,20.6,30.10,NE,38,7.0,7.0,69,0.00,,,0.01,47,Wunderground v.1.15,2013-03-04 22:43:00,
2013-03-04 16:44:00,29.6,20.7,30.10,ESE,117,7.0,7.0,69,0.00,,,0.01,47,Wunderground v.1.15,2013-03-04 22:44:00,
2013-03-04 16:47:00,29.5,20.9,30.10,ENE,60,7.0,16.0,70,0.00,,,0.01,46,Wunderground v.1.15,2013-03-04 22:47:00,
2013-03-04 16:48:00,29.5,20.9,30.10,SE,129,7.0,16.0,70,0.00,,,0.01,44,Wunderground v.1.15,2013-03-04 22:48:00,
2013-03-04 16:49:00,29.5,20.9,30.10,East,84,7.0,16.0,70,0.00,,,0.01,46,Wunderground v.1.15,2013-03-04 22:49:00,
2013-03-04 16:52:00,29.5,20.9,30.10,East,80,8.0,14.0,70,0.00,,,0.01,49,Wunderground v.1.15,2013-03-04 22:52:00,
2013-03-04 16:53:00,29.5,21.3,30.10,East,83,7.0,14.0,71,0.00,,,0.01,49,Wunderground v.1.15,2013-03-04 22:53:00,
2013-03-04 16:54:00,29.6,21.3,30.10,ENE,67,7.0,14.0,71,0.00,,,0.01,49,Wunderground v.1.15,2013-03-04 22:54:00,
2013-03-04 16:58:00,29.5,21.3,30.10,ENE,77,5.0,14.0,71,0.00,,,0.01,46,Wunderground v.1.15,2013-03-04 22:58:00,
2013-03-04 16:59:00,29.5,21.3,30.10,East,84,5.0,14.0,71,0.00,,,0.01,44,Wunderground v.1.15,2013-03-04 22:59:00,
2013-03-04 17:01:00,29.5,21.3,30.10,East,80,5.0,11.0,71,0.00,,,0.01,42,Wunderground v.1.15,2013-03-04 23:01:00,
2013-03-04 17:02:00,29.5,21.3,30.10,ENE,75,5.0,11.0,71,0.00,,,0.01,40,Wunderground v.1.15,2013-03-04 23:02:00,
2013-03-04 17:06:00,29.6,21.7,30.10,NNE,22,6.0,11.0,72,0.00,,,0.01,33,Wunderground v.1.15,2013-03-04 23:06:00,
2013-03-04 17:07:00,29.6,21.7,30.10,ENE,74,6.0,11.0,72,0.00,,,0.01,33,Wunderground v.1.15,2013-03-04 23:07:00,
2013-03-04 17:08:00,29.6,21.7,30.10,NE,55,6.0,11.0,72,0.00,,,0.01,33,Wunderground v.1.15,2013-03-04 23:08:00,
2013-03-04 17:11:00,29.6,21.7,30.10,ESE,111,6.0,6.0,72,0.00,,,0.01,32,Wunderground v.1.15,2013-03-04 23:11:00,
2013-03-04 17:13:00,29.6,21.7,30.10,SE,124,5.0,6.0,72,0.00,,,0.01,32,Wunderground v.1.15,2013-03-04 23:13:00,
2013-03-04 17:16:00,29.6,21.7,30.09,NE,51,5.0,6.0,72,0.00,,,0.01,33,Wunderground v.1.15,2013-03-04 23:16:00,
2013-03-04 17:19:00,29.6,21.7,30.10,ENE,57,4.0,6.0,72,0.00,,,0.01,33,Wunderground v.1.15,2013-03-04 23:19:00,
2013-03-04 17:23:00,29.6,21.7,30.09,NE,46,4.0,4.0,72,0.00,,,0.01,32,Wunderground v.1.15,2013-03-04 23:23:00,
2013-03-04 17:24:00,29.6,21.7,30.09,NE,51,4.0,5.0,72,0.00,,,0.01,32,Wunderground v.1.15,2013-03-04 23:24:00,
2013-03-04 17:27:00,29.6,21.7,30.09,ENE,60,4.0,5.0,72,0.00,,,0.01,28,Wunderground v.1.15,2013-03-04 23:27:00,
2013-03-04 17:33:00,29.6,21.7,30.10,ENE,68,4.0,8.0,72,0.00,,,0.01,23,Wunderground v.1.15,2013-03-04 23:33:00,
2013-03-04 17:34:00,29.6,21.7,30.10,NE,52,4.0,8.0,72,0.00,,,0.01,23,Wunderground v.1.15,2013-03-04 23:34:00,
2013-03-04 17:35:00,29.6,21.7,30.10,NE,52,4.0,8.0,72,0.00,,,0.01,21,Wunderground v.1.15,2013-03-04 23:35:00,
2013-03-04 17:37:00,29.6,21.7,30.10,NE,56,4.0,8.0,72,0.00,,,0.01,19,Wunderground v.1.15,2013-03-04 23:37:00,
2013-03-04 17:39:00,29.6,21.7,30.10,ENE,62,5.0,8.0,72,0.00,,,0.01,16,Wunderground v.1.15,2013-03-04 23:39:00,
2013-03-04 17:40:00,29.6,21.7,30.10,NE,56,5.0,5.0,72,0.00,,,0.01,14,Wunderground v.1.15,2013-03-04 23:40:00,
2013-03-04 17:42:00,29.6,21.7,30.10,NE,42,4.0,5.0,72,0.00,,,0.01,12,Wunderground v.1.15,2013-03-04 23:42:00,
2013-03-04 17:43:00,29.6,21.7,30.10,NNE,28,4.0,5.0,72,0.00,,,0.01,11,Wunderground v.1.15,2013-03-04 23:43:00,
2013-03-04 17:45:00,29.6,21.7,30.10,ENE,76,4.0,5.0,72,0.00,,,0.01,7,Wunderground v.1.15,2013-03-04 23:45:00,
2013-03-04 17:49:00,29.6,21.7,30.10,ENE,74,4.0,8.0,72,0.00,,,0.01,5,Wunderground v.1.15,2013-03-04 23:49:00,
2013-03-04 17:50:00,29.6,21.7,30.10,ENE,73,4.0,4.0,72,0.00,,,0.01,0,Wunderground v.1.15,2013-03-04 23:50:00,
2013-03-04 17:52:00,29.6,21.7,30.10,ENE,68,4.0,10.0,72,0.00,,,0.01,0,Wunderground v.1.15,2013-03-04 23:52:00,
2013-03-04 17:54:00,29.6,21.7,30.10,NE,50,5.0,10.0,72,0.00,,,0.01,0,Wunderground v.1.15,2013-03-04 23:54:00,
2013-03-04 17:57:00,29.6,21.7,30.10,SE,128,5.0,11.0,72,0.00,,,0.01,0,Wunderground v.1.15,2013-03-04 23:57:00,
2013-03-04 17:59:00,29.7,21.8,30.11,NE,48,5.0,11.0,72,0.00,,,0.01,0,Wunderground v.1.15,2013-03-04 23:59:00,
2013-03-04 18:01:00,29.7,22.1,30.11,ESE,113,5.0,5.0,73,0.00,,,0.01,0,Wunderground v.1.15,2013-03-05 00:01:00,
2013-03-04 18:03:00,29.6,22.0,30.11,NE,46,5.0,5.0,73,0.00,,,0.01,0,Wunderground v.1.15,2013-03-05 00:03:00,
2013-03-04 18:06:00,29.6,22.0,30.11,NE,46,5.0,6.0,73,0.00,,,0.01,0,Wunderground v.1.15,2013-03-05 00:06:00,
2013-03-04 18:09:00,29.6,22.0,30.11,ENE,61,4.0,6.0,73,0.00,,,0.01,0,Wunderground v.1.15,2013-03-05 00:09:00,
2013-03-04 18:15:00,29.6,22.0,30.11,NE,53,4.0,5.0,73,0.00,,,0.01,0,Wunderground v.1.15,2013-03-05 00:15:00,
2013-03-04 18:17:00,29.6,22.3,30.11,NE,44,4.0,5.0,74,0.00,,,0.01,0,Wunderground v.1.15,2013-03-05 00:17:00,
2013-03-04 18:18:00,29.6,22.3,30.12,NNE,22,4.0,5.0,74,0.00,,,0.01,0,Wunderground v.1.15,2013-03-05 00:18:00,
2013-03-04 18:20:00,29.6,22.3,30.12,NE,38,4.0,5.0,74,0.00,,,0.01,0,Wunderground v.1.15,2013-03-05 00:20:00,
2013-03-04 18:23:00,29.6,22.3,30.12,NE,36,4.0,6.0,74,0.00,,,0.01,0,Wunderground v.1.15,2013-03-05 00:23:00,
2013-03-04 18:25:00,29.6,22.3,30.12,NE,53,5.0,7.0,74,0.00,,,0.01,0,Wunderground v.1.15,2013-03-05 00:25:00,
2013-03-04 18:27:00,29.5,22.2,30.12,NE,49,5.0,7.0,74,0.00,,,0.01,0,Wunderground v.1.15,2013-03-05 00:27:00,
2013-03-04 18:28:00,29.5,22.2,30.12,ESE,109,5.0,7.0,74,0.00,,,0.01,0,Wunderground v.1.15,2013-03-05 00:28:00,
2013-03-04 18:32:00,29.4,22.1,30.12,North,9,5.0,6.0,74,0.00,,,0.01,0,Wunderground v.1.15,2013-03-05 00:32:00,
2013-03-04 18:33:00,29.4,22.1,30.12,NE,44,5.0,6.0,74,0.00,,,0.01,0,Wunderground v.1.15,2013-03-05 00:33:00,
2013-03-04 18:36:00,29.4,22.5,30.12,NE,49,5.0,6.0,75,0.00,,,0.01,0,Wunderground v.1.15,2013-03-05 00:36:00,
2013-03-04 18:37:00,29.4,22.5,30.12,NNE,25,5.0,6.0,75,0.00,,,0.01,0,Wunderground v.1.15,2013-03-05 00:37:00,
2013-03-04 18:39:00,29.4,22.5,30.12,NE,54,5.0,6.0,75,0.00,,,0.01,0,Wunderground v.1.15,2013-03-05 00:39:00,
2013-03-04 18:42:00,29.3,22.4,30.13,NE,51,5.0,9.0,75,0.00,,,0.01,0,Wunderground v.1.15,2013-03-05 00:42:00,
2013-03-04 18:44:00,29.3,22.4,30.13,NE,56,5.0,9.0,75,0.00,,,0.01,0,Wunderground v.1.15,2013-03-05 00:44:00,
2013-03-04 18:47:00,29.3,22.4,30.13,East,80,5.0,9.0,75,0.00,,,0.01,0,Wunderground v.1.15,2013-03-05 00:47:00,
2013-03-04 18:51:00,29.2,22.3,30.13,ENE,57,5.0,5.0,75,0.00,,,0.01,0,Wunderground v.1.15,2013-03-05 00:51:00,
2013-03-04 18:53:00,29.2,22.6,30.13,ENE,74,5.0,5.0,76,0.00,,,0.01,0,Wunderground v.1.15,2013-03-05 00:53:00,
2013-03-04 18:55:00,29.2,22.6,30.13,ENE,63,4.0,5.0,76,0.00,,,0.01,0,Wunderground v.1.15,2013-03-05 00:55:00,
2013-03-04 18:57:00,29.2,22.6,30.13,East,84,4.0,7.0,76,0.00,,,0.01,0,Wunderground v.1.15,2013-03-05 00:57:00,
2013-03-04 18:58:00,29.2,22.6,30.13,NNE,28,4.0,7.0,76,0.00,,,0.01,0,Wunderground v.1.15,2013-03-05 00:58:00,
2013-03-04 19:04:00,29.2,22.6,30.13,ENE,66,4.0,5.0,76,0.00,,,0.01,0,Wunderground v.1.15,2013-03-05 01:04:00,
2013-03-04 19:05:00,29.2,22.6,30.13,NE,44,4.0,5.0,76,0.00,,,0.01,0,Wunderground v.1.15,2013-03-05 01:05:00,
2013-03-04 19:06:00,29.2,22.6,30.13,ENE,63,4.0,5.0,76,0.00,,,0.01,0,Wunderground v.1.15,2013-03-05 01:06:00,
2013-03-04 19:10:00,29.2,22.9,30.12,NE,48,4.0,4.0,77,0.00,,,0.01,0,Wunderground v.1.15,2013-03-05 01:10:00,
2013-03-04 19:11:00,29.2,22.9,30.12,ENE,59,4.0,6.0,77,0.00,,,0.01,0,Wunderground v.1.15,2013-03-05 01:11:00,
2013-03-04 19:12:00,29.1,22.8,30.12,NE,48,4.0,6.0,77,0.00,,,0.01,0,Wunderground v.1.15,2013-03-05 01:12:00,
2013-03-04 19:14:00,29.1,22.8,30.12,ENE,71,5.0,6.0,77,0.00,,,0.01,0,Wunderground v.1.15,2013-03-05 01:14:00,
2013-03-04 19:16:00,29.1,22.8,30.12,NE,35,5.0,6.0,77,0.00,,,0.01,0,Wunderground v.1.15,2013-03-05 01:16:00,
2013-03-04 19:18:00,29.1,22.8,30.12,ENE,57,4.0,6.0,77,0.00,,,0.01,0,Wunderground v.1.15,2013-03-05 01:18:00,
2013-03-04 19:19:00,29.1,22.8,30.12,NNE,20,4.0,6.0,77,0.00,,,0.01,0,Wunderground v.1.15,2013-03-05 01:19:00,
2013-03-04 19:22:00,29.1,22.8,30.12,ENE,75,3.0,4.0,77,0.00,,,0.01,0,Wunderground v.1.15,2013-03-05 01:22:00,
2013-03-04 19:24:00,29.1,23.1,30.12,NE,47,2.0,4.0,78,0.00,,,0.01,0,Wunderground v.1.15,2013-03-05 01:24:00,
2013-03-04 19:26:00,29.1,23.1,30.13,ENE,74,2.0,4.0,78,0.00,,,0.01,0,Wunderground v.1.15,2013-03-05 01:26:00,
2013-03-04 19:27:00,29.1,23.1,30.12,NE,55,2.0,4.0,78,0.00,,,0.01,0,Wunderground v.1.15,2013-03-05 01:27:00,
2013-03-04 19:30:00,29.1,23.1,30.12,ENE,71,2.0,5.0,78,0.00,,,0.01,0,Wunderground v.1.15,2013-03-05 01:30:00,
2013-03-04 19:32:00,29.1,23.1,30.13,NE,51,2.0,5.0,78,0.00,,,0.01,0,Wunderground v.1.15,2013-03-05 01:32:00,
2013-03-04 19:35:00,29.1,23.1,30.13,ENE,69,4.0,5.0,78,0.00,,,0.01,0,Wunderground v.1.15,2013-03-05 01:35:00,
2013-03-04 19:36:00,29.1,23.1,30.13,ENE,57,4.0,5.0,78,0.00,,,0.01,0,Wunderground v.1.15,2013-03-05 01:36:00,
2013-03-04 19:41:00,29.1,23.1,30.13,ENE,70,4.0,6.0,78,0.00,,,0.01,0,Wunderground v.1.15,2013-03-05 01:41:00,
2013-03-04 19:46:00,29.1,23.1,30.13,ENE,78,4.0,7.0,78,0.00,,,0.01,0,Wunderground v.1.15,2013-03-05 01:46:00,
2013-03-04 19:47:00,29.1,23.1,30.13,ENE,69,4.0,11.0,78,0.00,,,0.01,0,Wunderground v.1.15,2013-03-05 01:47:00,
2013-03-04 19:49:00,29.1,23.1,30.13,NE,51,5.0,11.0,78,0.00,,,0.01,0,Wunderground v.1.15,2013-03-05 01:49:00,
2013-03-04 19:53:00,29.1,23.1,30.13,ENE,75,5.0,5.0,78,0.00,,,0.01,0,Wunderground v.1.15,2013-03-05 01:53:00,
2013-03-04 19:57:00,29.0,23.0,30.13,ENE,78,5.0,6.0,78,0.00,,,0.01,0,Wunderground v.1.15,2013-03-05 01:57:00,
2013-03-04 19:58:00,29.0,23.0,30.13,NE,53,4.0,6.0,78,0.00,,,0.01,0,Wunderground v.1.15,2013-03-05 01:58:00,
2013-03-04 19:59:00,29.0,23.0,30.13,ENE,65,4.0,6.0,78,0.00,,,0.01,0,Wunderground v.1.15,2013-03-05 01:59:00,
2013-03-04 20:00:00,29.0,23.0,30.13,NE,44,4.0,5.0,78,0.00,,,0.01,0,Wunderground v.1.15,2013-03-05 02:00:00,
2013-03-04 20:05:00,28.9,22.9,30.13,ESE,105,5.0,13.0,78,0.00,,,0.01,0,Wunderground v.1.15,2013-03-05 02:05:00,
2013-03-04 20:06:00,28.9,22.9,30.13,East,101,5.0,13.0,78,0.00,,,0.01,0,Wunderground v.1.15,2013-03-05 02:06:00,
2013-03-04 20:07:00,28.9,22.9,30.13,East,83,6.0,13.0,78,0.00,,,0.01,0,Wunderground v.1.15,2013-03-05 02:07:00,
2013-03-04 20:11:00,28.9,22.9,30.14,NE,51,6.0,6.0,78,0.00,,,0.01,0,Wunderground v.1.15,2013-03-05 02:11:00,
2013-03-04 20:14:00,28.9,22.9,30.14,ENE,71,6.0,7.0,78,0.00,,,0.01,0,Wunderground v.1.15,2013-03-05 02:14:00,
2013-03-04 20:17:00,28.8,22.8,30.14,East,80,4.0,7.0,78,0.00,,,0.01,0,Wunderground v.1.15,2013-03-05 02:17:00,
2013-03-04 20:20:00,28.8,22.8,30.14,ENE,57,5.0,7.0,78,0.00,,,0.01,0,Wunderground v.1.15,2013-03-05 02:20:00,
2013-03-04 20:25:00,28.8,22.8,30.14,ENE,57,6.0,8.0,78,0.00,,,0.01,0,Wunderground v.1.15,2013-03-05 02:25:00,
2013-03-04 20:26:00,28.8,22.8,30.14,SSE,158,6.0,8.0,78,0.00,,,0.01,0,Wunderground v.1.15,2013-03-05 02:26:00,
2013-03-04 20:27:00,28.8,22.8,30.14,ENE,65,6.0,8.0,78,0.00,,,0.01,0,Wunderground v.1.15,2013-03-05 02:27:00,
2013-03-04 20:32:00,28.7,22.7,30.14,ENE,57,6.0,12.0,78,0.00,,,0.01,0,Wunderground v.1.15,2013-03-05 02:32:00,
2013-03-04 20:34:00,28.7,22.7,30.14,East,79,7.0,12.0,78,0.00,,,0.01,0,Wunderground v.1.15,2013-03-05 02:34:00,
2013-03-04 20:38:00,28.7,22.7,30.14,ENE,67,7.0,12.0,78,0.00,,,0.01,0,Wunderground v.1.15,2013-03-05 02:38:00,
2013-03-04 20:39:00,28.7,22.7,30.14,East,95,6.0,12.0,78,0.00,,,0.01,0,Wunderground v.1.15,2013-03-05 02:39:00,
2013-03-04 20:40:00,28.6,22.6,30.14,East,80,6.0,11.0,78,0.00,,,0.01,0,Wunderground v.1.15,2013-03-05 02:40:00,
2013-03-04 20:45:00,28.6,22.6,30.14,ENE,72,6.0,11.0,78,0.00,,,0.01,0,Wunderground v.1.15,2013-03-05 02:45:00,
2013-03-04 20:47:00,28.6,22.6,30.14,NNE,17,6.0,11.0,78,0.00,,,0.01,0,Wunderground v.1.15,2013-03-05 02:47:00,
2013-03-04 20:49:00,28.6,22.6,30.14,NE,52,6.0,11.0,78,0.00,,,0.01,0,Wunderground v.1.15,2013-03-05 02:49:00,
2013-03-04 20:50:00,28.5,22.5,30.14,ENE,71,6.0,6.0,78,0.00,,,0.01,0,Wunderground v.1.15,2013-03-05 02:50:00,
2013-03-04 20:56:00,28.5,22.5,30.14,ENE,74,5.0,11.0,78,0.00,,,0.01,0,Wunderground v.1.15,2013-03-05 02:56:00,
2013-03-04 20:57:00,28.5,22.5,30.14,ENE,70,5.0,11.0,78,0.00,,,0.01,0,Wunderground v.1.15,2013-03-05 02:57:00,
2013-03-04 20:59:00,28.5,22.5,30.14,East,90,5.0,11.0,78,0.00,,,0.01,0,Wunderground v.1.15,2013-03-05 02:59:00,
2013-03-04 21:03:00,28.4,22.4,30.14,East,96,7.0,8.0,78,0.00,,,0.01,0,Wunderground v.1.15,2013-03-05 03:03:00,
2013-03-04 21:04:00,28.4,22.4,30.14,East,87,6.0,8.0,78,0.00,,,0.01,0,Wunderground v.1.15,2013-03-05 03:04:00,
2013-03-04 21:05:00,28.4,22.4,30.14,ENE,69,6.0,8.0,78,0.00,,,0.01,0,Wunderground v.1.15,2013-03-05 03:05:00,
2013-03-04 21:10:00,28.4,22.4,30.14,East,94,5.0,5.0,78,0.00,,,0.01,0,Wunderground v.1.15,2013-03-05 03:10:00,
2013-03-04 21:12:00,28.3,22.3,30.14,ESE,123,5.0,5.0,78,0.00,,,0.01,0,Wunderground v.1.15,2013-03-05 03:12:00,
2013-03-04 21:15:00,28.3,22.3,30.14,ENE,78,5.0,7.0,78,0.00,,,0.01,0,Wunderground v.1.15,2013-03-05 03:15:00,
2013-03-04 21:17:00,28.3,22.3,30.14,ENE,57,5.0,11.0,78,0.00,,,0.01,0,Wunderground v.1.15,2013-03-05 03:17:00,
2013-03-04 21:22:00,28.3,22.3,30.13,East,86,6.0,8.0,78,0.00,,,0.01,0,Wunderground v.1.15,2013-03-05 03:22:00,
2013-03-04 21:23:00,28.3,22.3,30.13,ENE,65,7.0,8.0,78,0.00,,,0.01,0,Wunderground v.1.15,2013-03-05 03:23:00,
2013-03-04 21:24:00,28.3,22.3,30.13,ENE,74,7.0,8.0,78,0.00,,,0.01,0,Wunderground v.1.15,2013-03-05 03:24:00,
2013-03-04 21:25:00,28.2,22.2,30.13,East,84,7.0,8.0,78,0.00,,,0.01,0,Wunderground v.1.15,2013-03-05 03:25:00,
2013-03-04 21:29:00,28.1,22.1,30.14,NE,51,7.0,13.0,78,0.00,,,0.01,0,Wunderground v.1.15,2013-03-05 03:29:00,
2013-03-04 21:31:00,28.1,22.1,30.13,ENE,64,7.0,13.0,78,0.00,,,0.01,0,Wunderground v.1.15,2013-03-05 03:31:00,
2013-03-04 21:33:00,28.1,22.1,30.13,East,84,8.0,13.0,78,0.00,,,0.01,0,Wunderground v.1.15,2013-03-05 03:33:00,
2013-03-04 21:37:00,28.0,22.0,30.13,NE,54,9.0,13.0,78,0.00,,,0.01,0,Wunderground v.1.15,2013-03-05 03:37:00,
2013-03-04 21:38:00,28.0,22.0,30.13,ESE,105,9.0,13.0,78,0.00,,,0.01,0,Wunderground v.1.15,2013-03-05 03:38:00,
2013-03-04 21:39:00,28.0,22.0,30.13,East,87,9.0,13.0,78,0.00,,,0.01,0,Wunderground v.1.15,2013-03-05 03:39:00,
2013-03-04 21:42:00,28.0,22.0,30.13,SE,132,10.0,12.0,78,0.00,,,0.01,0,Wunderground v.1.15,2013-03-05 03:42:00,
2013-03-04 21:43:00,28.0,22.0,30.13,East,101,9.0,12.0,78,0.00,,,0.01,0,Wunderground v.1.15,2013-03-05 03:43:00,
2013-03-04 21:48:00,27.9,21.9,30.13,NNE,28,7.0,12.0,78,0.00,,,0.01,0,Wunderground v.1.15,2013-03-05 03:48:00,
2013-03-04 21:49:00,27.9,21.9,30.13,NE,42,7.0,12.0,78,0.00,,,0.01,0,Wunderground v.1.15,2013-03-05 03:49:00,
2013-03-04 21:51:00,27.9,21.9,30.13,ENE,62,8.0,11.0,78,0.00,,,0.01,0,Wunderground v.1.15,2013-03-05 03:51:00,
2013-03-04 21:56:00,27.9,21.9,30.13,ENE,76,8.0,13.0,78,0.00,,,0.01,0,Wunderground v.1.15,2013-03-05 03:56:00,
2013-03-04 21:57:00,27.9,21.9,30.13,East,81,8.0,13.0,78,0.00,,,0.01,0,Wunderground v.1.15,2013-03-05 03:57:00,
2013-03-04 22:02:00,27.8,21.8,30.13,ENE,63,9.0,13.0,78,0.00,,,0.01,0,Wunderground v.1.15,2013-03-05 04:02:00,
2013-03-04 22:03:00,27.8,21.8,30.13,ENE,74,9.0,13.0,78,0.00,,,0.01,0,Wunderground v.1.15,2013-03-05 04:03:00,
2013-03-04 22:05:00,27.8,21.8,30.13,ESE,115,9.0,13.0,78,0.00,,,0.01,0,Wunderground v.1.15,2013-03-05 04:05:00,
2013-03-04 22:08:00,27.8,21.8,30.13,ENE,65,8.0,13.0,78,0.00,,,0.01,0,Wunderground v.1.15,2013-03-05 04:08:00,
2013-03-04 22:09:00,27.8,21.8,30.13,ENE,69,8.0,13.0,78,0.00,,,0.01,0,Wunderground v.1.15,2013-03-05 04:09:00,
2013-03-04 22:11:00,27.8,21.8,30.13,ENE,59,7.0,8.0,78,0.00,,,0.01,0,Wunderground v.1.15,2013-03-05 04:11:00,
2013-03-04 22:14:00,27.8,21.8,30.13,East,80,5.0,10.0,78,0.00,,,0.01,0,Wunderground v.1.15,2013-03-05 04:14:00,
2013-03-04 22:16:00,27.8,21.8,30.14,ENE,64,5.0,10.0,78,0.00,,,0.01,0,Wunderground v.1.15,2013-03-05 04:16:00,
2013-03-04 22:20:00,27.7,21.7,30.14,East,94,6.0,6.0,78,0.00,,,0.01,0,Wunderground v.1.15,2013-03-05 04:20:00,
2013-03-04 22:21:00,27.7,21.7,30.14,East,92,6.0,6.0,78,0.00,,,0.01,0,Wunderground v.1.15,2013-03-05 04:21:00,
2013-03-04 22:25:00,27.7,21.7,30.14,East,91,6.0,11.0,78,0.00,,,0.01,0,Wunderground v.1.15,2013-03-05 04:25:00,
2013-03-04 22:28:00,27.7,21.4,30.15,East,84,5.0,11.0,77,0.00,,,0.01,0,Wunderground v.1.15,2013-03-05 04:28:00,
2013-03-04 22:31:00,27.7,21.4,30.15,ENE,73,4.0,5.0,77,0.00,,,0.01,0,Wunderground v.1.15,2013-03-05 04:31:00,
2013-03-04 22:32:00,27.7,21.4,30.15,East,94,5.0,8.0,77,0.00,,,0.01,0,Wunderground v.1.15,2013-03-05 04:32:00,
2013-03-04 22:34:00,27.7,21.4,30.16,ESE,107,5.0,8.0,77,0.00,,,0.01,0,Wunderground v.1.15,2013-03-05 04:34:00,
2013-03-04 22:37:00,27.7,21.4,30.16,ENE,69,4.0,8.0,77,0.00,,,0.01,0,Wunderground v.1.15,2013-03-05 04:37:00,
2013-03-04 22:39:00,27.7,21.4,30.16,East,90,5.0,8.0,77,0.00,,,0.01,0,Wunderground v.1.15,2013-03-05 04:39:00,
2013-03-04 22:44:00,27.7,21.1,30.15,ENE,71,3.0,6.0,76,0.00,,,0.01,0,Wunderground v.1.15,2013-03-05 04:44:00,
2013-03-04 22:45:00,27.7,21.1,30.15,ESE,113,3.0,6.0,76,0.00,,,0.01,0,Wunderground v.1.15,2013-03-05 04:45:00,
2013-03-04 22:46:00,27.7,21.1,30.15,ENE,76,3.0,6.0,76,0.00,,,0.01,0,Wunderground v.1.15,2013-03-05 04:46:00,
2013-03-04 22:49:00,27.7,21.1,30.15,ENE,65,4.0,7.0,76,0.00,,,0.01,0,Wunderground v.1.15,2013-03-05 04:49:00,
2013-03-04 22:50:00,27.7,21.1,30.15,ENE,66,5.0,5.0,76,0.00,,,0.01,0,Wunderground v.1.15,2013-03-05 04:50:00,
2013-03-04 22:51:00,27.7,21.1,30.15,ENE,71,5.0,5.0,76,0.00,,,0.01,0,Wunderground v.1.15,2013-03-05 04:51:00,
2013-03-04 22:55:00,27.7,21.1,30.15,East,83,6.0,6.0,76,0.00,,,0.01,0,Wunderground v.1.15,2013-03-05 04:55:00,
2013-03-04 22:57:00,27.6,21.0,30.15,ENE,73,6.0,6.0,76,0.00,,,0.01,0,Wunderground v.1.15,2013-03-05 04:57:00,
2013-03-04 22:58:00,27.7,21.1,30.15,East,87,5.0,6.0,76,0.00,,,0.01,0,Wunderground v.1.15,2013-03-05 04:58:00,
2013-03-04 23:00:00,27.6,21.0,30.15,NE,46,5.0,5.0,76,0.00,,,0.01,0,Wunderground v.1.15,2013-03-05 05:00:00,
2013-03-04 23:01:00,27.6,21.0,30.14,NE,46,4.0,5.0,76,0.00,,,0.01,0,Wunderground v.1.15,2013-03-05 05:01:00,
2013-03-04 23:03:00,27.6,21.0,30.14,ENE,58,4.0,6.0,76,0.00,,,0.01,0,Wunderground v.1.15,2013-03-05 05:03:00,
2013-03-04 23:04:00,27.6,21.0,30.14,ESE,109,4.0,8.0,76,0.00,,,0.01,0,Wunderground v.1.15,2013-03-05 05:04:00,
2013-03-04 23:06:00,27.6,21.0,30.15,ESE,119,4.0,8.0,76,0.00,,,0.01,0,Wunderground v.1.15,2013-03-05 05:06:00,
2013-03-04 23:07:00,27.6,21.0,30.15,NNW,348,4.0,8.0,76,0.00,,,0.01,0,Wunderground v.1.15,2013-03-05 05:07:00,
2013-03-04 23:09:00,27.6,21.0,30.15,NE,55,4.0,8.0,76,0.00,,,0.01,0,Wunderground v.1.15,2013-03-05 05:09:00,
2013-03-04 23:10:00,27.6,21.0,30.15,ENE,76,4.0,4.0,76,0.00,,,0.01,0,Wunderground v.1.15,2013-03-05 05:10:00,
2013-03-04 23:13:00,27.6,21.0,30.15,East,97,5.0,11.0,76,0.00,,,0.01,0,Wunderground v.1.15,2013-03-05 05:13:00,
2013-03-04 23:16:00,27.6,21.0,30.15,East,81,5.0,11.0,76,0.00,,,0.01,0,Wunderground v.1.15,2013-03-05 05:16:00,
2013-03-04 23:17:00,27.6,21.0,30.15,East,90,5.0,11.0,76,0.00,,,0.01,0,Wunderground v.1.15,2013-03-05 05:17:00,
2013-03-04 23:19:00,27.6,21.0,30.15,East,90,4.0,11.0,76,0.00,,,0.01,0,Wunderground v.1.15,2013-03-05 05:19:00,
2013-03-04 23:21:00,27.5,20.9,30.15,ESE,112,4.0,4.0,76,0.00,,,0.01,0,Wunderground v.1.15,2013-03-05 05:21:00,
2013-03-04 23:23:00,27.5,20.9,30.15,East,84,4.0,5.0,76,0.00,,,0.01,0,Wunderground v.1.15,2013-03-05 05:23:00,
2013-03-04 23:25:00,27.5,20.9,30.15,East,91,3.0,8.0,76,0.00,,,0.01,0,Wunderground v.1.15,2013-03-05 05:25:00,
2013-03-04 23:26:00,27.5,20.9,30.15,East,97,3.0,8.0,76,0.00,,,0.01,0,Wunderground v.1.15,2013-03-05 05:26:00,
2013-03-04 23:30:00,27.5,20.9,30.15,ESE,109,5.0,9.0,76,0.00,,,0.01,0,Wunderground v.1.15,2013-03-05 05:30:00,
2013-03-04 23:31:00,27.5,20.9,30.15,ESE,113,5.0,9.0,76,0.00,,,0.01,0,Wunderground v.1.15,2013-03-05 05:31:00,
2013-03-04 23:32:00,27.5,20.9,30.15,ENE,63,5.0,9.0,76,0.00,,,0.01,0,Wunderground v.1.15,2013-03-05 05:32:00,
2013-03-04 23:35:00,27.5,21.2,30.14,ENE,76,5.0,9.0,77,0.00,,,0.01,0,Wunderground v.1.15,2013-03-05 05:35:00,
2013-03-04 23:37:00,27.5,21.2,30.14,ENE,57,5.0,9.0,77,0.00,,,0.01,0,Wunderground v.1.15,2013-03-05 05:37:00,
2013-03-04 23:38:00,27.4,21.1,30.14,East,98,5.0,9.0,77,0.00,,,0.01,0,Wunderground v.1.15,2013-03-05 05:38:00,
2013-03-04 23:42:00,27.5,21.2,30.14,NNE,27,4.0,5.0,77,0.00,,,0.01,0,Wunderground v.1.15,2013-03-05 05:42:00,
2013-03-04 23:45:00,27.4,21.1,30.15,ESE,106,4.0,5.0,77,0.00,,,0.01,0,Wunderground v.1.15,2013-03-05 05:45:00,
2013-03-04 23:46:00,27.4,21.1,30.15,NE,44,4.0,5.0,77,0.00,,,0.01,0,Wunderground v.1.15,2013-03-05 05:46:00,
2013-03-04 23:48:00,27.4,21.1,30.15,ENE,69,3.0,6.0,77,0.00,,,0.01,0,Wunderground v.1.15,2013-03-05 05:48:00,
2013-03-04 23:49:00,27.4,21.1,30.15,NE,51,3.0,6.0,77,0.00,,,0.01,0,Wunderground v.1.15,2013-03-05 05:49:00,
2013-03-04 23:50:00,27.4,21.1,30.15,ENE,63,3.0,5.0,77,0.00,,,0.01,0,Wunderground v.1.15,2013-03-05 05:50:00,
2013-03-04 23:55:00,27.4,21.1,30.15,ESE,115,3.0,5.0,77,0.00,,,0.01,0,Wunderground v.1.15,2013-03-05 05:55:00,
2013-03-04 23:56:00,27.4,21.1,30.15,ENE,78,3.0,6.0,77,0.00,,,0.01,0,Wunderground v.1.15,2013-03-05 05:56:00,
2013-03-04 23:58:00,27.4,21.1,30.15,ESE,119,3.0,6.0,77,0.00,,,0.01,0,Wunderground v.1.15,2013-03-05 05:58:00,